SQ9IAB-13 Weather Reports


time (UTC)temp
C
wind
direction
speed
KPH
gust
KPH
rain 1hr
cm
rain 24hr
cm
rain mn
cm
humidity
%
barometer
mb
20260904032917 18 182 0.0 4.8 0.00 0.00 0.00 63 1018.6
20260904032817 18 182 1.6 4.8 0.00 0.00 0.00 63 1018.5
20260904032716 18 188 3.2 4.8 0.00 0.00 0.00 63 1018.5
20260904032617 18 171 0.0 4.8 0.00 0.00 0.00 63 1018.5
20260904032516 18 160 1.6 4.8 0.00 0.00 0.00 63 1018.6
20260904032417 18 169 0.0 4.8 0.00 0.00 0.00 63 1018.6
20260904032316 18 178 0.0 4.8 0.00 0.00 0.00 63 1018.7
20260904032217 18 175 3.2 4.8 0.00 0.00 0.00 62 1018.5
20260904032116 18 151 3.2 4.8 0.00 0.00 0.00 62 1018.5
20260904032017 18 133 0.0 4.8 0.00 0.00 0.00 62 1018.5
20260904031917 18 150 1.6 4.8 0.00 0.00 0.00 62 1018.6
20260904031816 18 146 1.6 4.8 0.00 0.00 0.00 62 1018.6
20260904031716 18 171 1.6 4.8 0.00 0.00 0.00 62 1018.5
20260904031617 18 213 1.6 4.8 0.00 0.00 0.00 62 1018.6
20260904031516 18 214 3.2 4.8 0.00 0.00 0.00 62 1018.6
20260904031416 18 178 0.0 4.8 0.00 0.00 0.00 62 1018.7
20260904031317 18 192 1.6 8.0 0.00 0.00 0.00 62 1018.6
20260904031217 18 199 0.0 8.0 0.00 0.00 0.00 62 1018.5
20260904031116 18 206 3.2 8.0 0.00 0.00 0.00 62 1018.4
20260904031016 18 207 3.2 8.0 0.00 0.00 0.00 62 1018.4
20260904030917 18 198 0.0 8.0 0.00 0.00 0.00 62 1018.5
20260904030817 18 195 1.6 8.0 0.00 0.00 0.00 62 1018.4
20260904030717 18 187 0.0 8.0 0.00 0.00 0.00 62 1018.6
20260904030617 18 190 0.0 8.0 0.00 0.00 0.00 62 1018.4
20260904030516 18 187 0.0 8.0 0.00 0.00 0.00 62 1018.4
20260904030417 18 190 1.6 8.0 0.00 0.00 0.00 62 1018.6
20260904030318 18 184 0.0 4.8 0.00 0.00 0.00 62 1018.7
20260904030216 18 183 3.2 4.8 0.00 0.00 0.00 62 1018.5
20260904030117 18 181 0.0 4.8 0.00 0.00 0.00 62 1018.6
20260904030017 18 182 0.0 4.8 0.00 0.00 0.00 62 1018.4
20260904025917 18 182 1.6 4.8 0.00 0.00 0.00 62 1018.4
20260904025816 18 183 1.6 4.8 0.00 0.00 0.00 62 1018.3
20260904025716 18 174 3.2 4.8 0.00 0.00 0.00 62 1018.6
20260904025617 18 173 1.6 4.8 0.00 0.00 0.00 62 1018.4
20260904025516 18 172 1.6 4.8 0.00 0.00 0.00 62 1018.5
20260904025417 18 170 0.0 4.8 0.00 0.00 0.00 62 1018.4
20260904025317 18 169 1.6 4.8 0.00 0.00 0.00 62 1018.4
20260904025216 18 168 0.0 4.8 0.00 0.00 0.00 62 1018.3
20260904025117 18 171 0.0 4.8 0.00 0.00 0.00 62 1018.4
20260904025016 18 178 0.0 6.4 0.00 0.00 0.00 62 1018.6
20260904024917 18 184 0.0 6.4 0.00 0.00 0.00 62 1018.4
20260904024816 18 189 0.0 6.4 0.00 0.00 0.00 62 1018.6
20260904024716 18 197 1.6 6.4 0.00 0.00 0.00 62 1018.5
20260904024616 18 202 1.6 6.4 0.00 0.00 0.00 62 1018.5
20260904024516 18 211 1.6 6.4 0.00 0.00 0.00 62 1018.3
20260904024417 18 219 1.6 6.4 0.00 0.00 0.00 62 1018.5
20260904024316 18 209 1.6 6.4 0.00 0.00 0.00 62 1018.3
20260904024217 18 205 0.0 6.4 0.00 0.00 0.00 62 1018.5
20260904024117 18 200 4.8 6.4 0.00 0.00 0.00 62 1018.3
20260904024016 18 192 3.2 6.4 0.00 0.00 0.00 62 1018.3
20260904023917 18 182 0.0 6.4 0.00 0.00 0.00 62 1018.5
20260904023816 18 182 4.8 6.4 0.00 0.00 0.00 62 1018.4
20260904023716 18 177 4.8 6.4 0.00 0.00 0.00 62 1018.5
20260904023617 18 160 0.0 4.8 0.00 0.00 0.00 62 1018.5
20260904023516 18 170 0.0 4.8 0.00 0.00 0.00 62 1018.4
20260904023417 18 177 0.0 4.8 0.00 0.00 0.00 62 1018.6
20260904023316 18 181 0.0 4.8 0.00 0.00 0.00 62 1018.2
20260904023217 18 186 0.0 11.3 0.00 0.00 0.00 62 1018.4
20260904023116 18 199 3.2 11.3 0.00 0.00 0.00 62 1018.4
20260904023017 18 189 1.6 11.3 0.00 0.00 0.00 62 1018.5
20260904022916 18 194 1.6 11.3 0.00 0.00 0.00 62 1018.4
20260904022817 18 201 3.2 11.3 0.00 0.00 0.00 62 1018.5
20260904022716 18 193 1.6 11.3 0.00 0.00 0.00 62 1018.4
20260904022617 18 197 1.6 11.3 0.00 0.00 0.00 62 1018.5
20260904022516 18 193 1.6 11.3 0.00 0.00 0.00 62 1018.2
20260904022417 18 192 1.6 11.3 0.00 0.00 0.00 62 1018.5
20260904022317 18 194 0.0 11.3 0.00 0.00 0.00 62 1018.4
20260904022217 18 200 6.4 11.3 0.00 0.00 0.00 62 1018.4
20260904022116 18 194 3.2 4.8 0.00 0.00 0.00 62 1018.5
20260904022016 18 190 1.6 4.8 0.00 0.00 0.00 62 1018.5
20260904021917 18 190 3.2 4.8 0.00 0.00 0.00 62 1018.5
20260904021816 18 181 0.0 3.2 0.00 0.00 0.00 62 1018.3
20260904021716 18 181 0.0 3.2 0.00 0.00 0.00 62 1018.4
20260904021617 18 178 0.0 3.2 0.00 0.00 0.00 62 1018.3
20260904021516 18 175 0.0 3.2 0.00 0.00 0.00 62 1018.6
20260904021417 18 173 0.0 3.2 0.00 0.00 0.00 62 1018.5
20260904021316 18 169 0.0 3.2 0.00 0.00 0.00 62 1018.1
20260904021216 18 164 0.0 3.2 0.00 0.00 0.00 62 1018.4
20260904021117 18 160 1.6 3.2 0.00 0.00 0.00 62 1018.3
20260904021017 18 153 0.0 1.6 0.00 0.00 0.00 61 1018.3
20260904020916 18 148 0.0 1.6 0.00 0.00 0.00 61 1018.5
20260904020816 18 150 0.0 1.6 0.00 0.00 0.00 61 1018.4
20260904020718 18 148 0.0 3.2 0.00 0.00 0.00 62 1018.4
20260904020617 18 49 0.0 8.0 0.00 0.00 0.00 61 1018.4
20260904020516 18 84 0.0 8.0 0.00 0.00 0.00 61 1018.4
20260904020416 18 60 0.0 8.0 0.00 0.00 0.00 61 1018.3
20260904020317 18 12 0.0 8.0 0.00 0.00 0.00 61 1018.5
20260904020216 18 213 0.0 8.0 0.00 0.00 0.00 61 1018.4
20260904020117 18 178 0.0 8.0 0.00 0.00 0.00 61 1018.5
20260904020017 18 166 0.0 8.0 0.00 0.00 0.00 61 1018.4
20260904015916 18 171 0.0 8.0 0.00 0.00 0.00 61 1018.6
20260904015817 18 169 0.0 8.0 0.00 0.00 0.00 61 1018.5
20260904015717 18 155 1.6 8.0 0.00 0.00 0.00 61 1018.6
20260904015616 18 165 4.8 8.0 0.00 0.00 0.00 61 1018.6
20260904015517 18 178 1.6 3.2 0.00 0.00 0.00 61 1018.6
20260904015416 18 168 0.0 3.2 0.00 0.00 0.00 61 1018.5
20260904015316 18 157 0.0 3.2 0.00 0.00 0.00 61 1018.4
20260904015217 18 148 1.6 3.2 0.00 0.00 0.00 61 1018.5
20260904015116 18 149 0.0 3.2 0.00 0.00 0.00 61 1018.3
20260904015017 18 148 0.0 4.8 0.00 0.00 0.00 61 1018.5
20260904014916 18 145 0.0 4.8 0.00 0.00 0.00 61 1018.3
20260904014817 18 143 0.0 4.8 0.00 0.00 0.00 61 1018.5
20260904014716 18 143 0.0 4.8 0.00 0.00 0.00 61 1018.4
20260904014618 18 145 0.0 4.8 0.00 0.00 0.00 61 1018.4
20260904014516 18 141 1.6 4.8 0.00 0.00 0.00 61 1018.5
20260904014416 18 139 0.0 4.8 0.00 0.00 0.00 61 1018.5
20260904014317 18 140 1.6 4.8 0.00 0.00 0.00 61 1018.4
20260904014217 18 149 0.0 4.8 0.00 0.00 0.00 61 1018.6
20260904014116 18 148 1.6 4.8 0.00 0.00 0.00 61 1018.5
20260904014017 18 148 3.2 4.8 0.00 0.00 0.00 61 1018.4
20260904013916 18 151 0.0 4.8 0.00 0.00 0.00 61 1018.7
20260904013817 18 153 0.0 4.8 0.00 0.00 0.00 61 1018.5
20260904013717 18 153 1.6 4.8 0.00 0.00 0.00 61 1018.5
20260904013616 18 149 1.6 4.8 0.00 0.00 0.00 61 1018.4
20260904013516 18 150 1.6 4.8 0.00 0.00 0.00 61 1018.4
20260904013417 18 157 1.6 4.8 0.00 0.00 0.00 61 1018.5
20260904013316 18 157 0.0 4.8 0.00 0.00 0.00 61 1018.6
20260904013217 18 153 1.6 4.8 0.00 0.00 0.00 61 1018.4
20260904013116 18 157 1.6 4.8 0.00 0.00 0.00 61 1018.5
20260904013016 18 158 0.0 3.2 0.00 0.00 0.00 61 1018.4
20260904012916 18 160 0.0 4.8 0.00 0.00 0.00 61 1018.6
20260904012817 18 156 0.0 4.8 0.00 0.00 0.00 61 1018.5
20260904012717 18 155 0.0 4.8 0.00 0.00 0.00 61 1018.4
20260904012616 18 155 0.0 4.8 0.00 0.00 0.00 61 1018.7
20260904012517 18 153 1.6 4.8 0.00 0.00 0.00 61 1018.6
20260904012417 18 148 1.6 4.8 0.00 0.00 0.00 61 1018.6
20260904012316 18 149 0.0 4.8 0.00 0.00 0.00 61 1018.4
20260904012217 18 144 0.0 4.8 0.00 0.00 0.00 60 1018.5
20260904012116 18 140 0.0 4.8 0.00 0.00 0.00 60 1018.6
20260904012017 18 142 0.0 4.8 0.00 0.00 0.00 60 1018.7
20260904011917 18 141 0.0 4.8 0.00 0.00 0.00 60 1018.5
20260904011817 18 141 0.0 4.8 0.00 0.00 0.00 60 1018.5
20260904011716 18 141 0.0 4.8 0.00 0.00 0.00 60 1018.6
20260904011617 18 141 0.0 4.8 0.00 0.00 0.00 60 1018.7
20260904011516 18 140 0.0 4.8 0.00 0.00 0.00 60 1018.6
20260904011416 18 140 0.0 4.8 0.00 0.00 0.00 60 1018.6
20260904011317 18 139 0.0 4.8 0.00 0.00 0.00 60 1018.6
20260904011217 18 141 1.6 4.8 0.00 0.00 0.00 60 1018.7
20260904011116 18 145 3.2 4.8 0.00 0.00 0.00 60 1018.6
20260904011016 18 144 1.6 4.8 0.00 0.00 0.00 60 1018.4
20260904010916 18 141 0.0 4.8 0.00 0.00 0.00 60 1018.5
20260904010817 18 141 0.0 4.8 0.00 0.00 0.00 60 1018.7
20260904010716 18 145 1.6 4.8 0.00 0.00 0.00 60 1018.4
20260904010617 18 146 1.6 4.8 0.00 0.00 0.00 60 1018.6
20260904010517 18 146 1.6 4.8 0.00 0.00 0.00 60 1018.6
20260904010416 18 145 1.6 6.4 0.00 0.00 0.00 60 1018.3
20260904010317 18 144 1.6 6.4 0.00 0.00 0.00 60 1018.5
20260904010217 18 147 1.6 6.4 0.00 0.00 0.00 60 1018.5
20260904010117 18 145 0.0 6.4 0.00 0.00 0.00 60 1018.5
20260904010017 18 148 0.0 6.4 0.00 0.00 0.00 60 1018.3
20260904005917 18 152 1.6 6.4 0.00 0.00 0.00 60 1018.5
20260904005817 18 151 1.6 9.7 0.00 0.00 0.00 60 1018.5
20260904005717 18 149 3.2 9.7 0.00 0.00 0.00 60 1018.5
20260904005618 18 148 0.0 9.7 0.00 0.00 0.00 60 1018.6
20260904005517 18 147 3.2 9.7 0.00 0.00 0.00 60 1018.6
20260904005417 18 148 4.8 9.7 0.00 0.00 0.00 60 1018.5
20260904005316 18 151 3.2 9.7 0.00 0.00 0.00 60 1018.5
20260904005217 18 151 3.2 9.7 0.00 0.00 0.00 60 1018.5
20260904005116 18 155 0.0 9.7 0.00 0.00 0.00 60 1018.6
20260904005016 18 153 1.6 9.7 0.00 0.00 0.00 60 1018.5
20260904004916 18 148 1.6 9.7 0.00 0.00 0.00 60 1018.6
20260904004816 18 148 4.8 9.7 0.00 0.00 0.00 60 1018.8
20260904004717 18 148 0.0 4.8 0.00 0.00 0.00 60 1018.6
20260904004617 18 150 1.6 4.8 0.00 0.00 0.00 60 1018.5
20260904004516 18 150 1.6 4.8 0.00 0.00 0.00 60 1018.5
20260904004416 18 150 1.6 4.8 0.00 0.00 0.00 60 1018.7
20260904004317 18 147 1.6 4.8 0.00 0.00 0.00 60 1018.7
20260904004217 18 146 3.2 4.8 0.00 0.00 0.00 60 1018.8
20260904004116 18 141 3.2 4.8 0.00 0.00 0.00 60 1018.8
20260904004016 18 134 0.0 4.8 0.00 0.00 0.00 61 1018.8
20260904003916 18 132 0.0 4.8 0.00 0.00 0.00 61 1018.8
20260904003816 18 132 1.6 4.8 0.00 0.00 0.00 61 1018.6
20260904003717 18 132 3.2 4.8 0.00 0.00 0.00 61 1018.8
20260904003617 18 133 3.2 4.8 0.00 0.00 0.00 61 1018.7
20260904003516 18 135 3.2 4.8 0.00 0.00 0.00 61 1018.8
20260904003417 18 138 1.6 4.8 0.00 0.00 0.00 61 1018.7
20260904003317 18 140 1.6 4.8 0.00 0.00 0.00 61 1018.8
20260904003216 18 141 0.0 4.8 0.00 0.00 0.00 61 1018.7
20260904003118 18 138 3.2 4.8 0.00 0.00 0.00 61 1018.7
20260904003016 18 146 1.6 4.8 0.00 0.00 0.00 61 1018.7
20260904002916 18 152 0.0 4.8 0.00 0.00 0.00 61 1018.7
20260904002817 18 153 1.6 4.8 0.00 0.00 0.00 61 1019.0
20260904002717 18 154 0.0 4.8 0.00 0.00 0.00 61 1018.7
20260904002616 18 151 0.0 4.8 0.00 0.00 0.00 61 1018.7
20260904002516 18 152 0.0 4.8 0.00 0.00 0.00 61 1018.6
20260904002416 18 152 0.0 4.8 0.00 0.00 0.00 61 1018.6
20260904002317 18 152 1.6 4.8 0.00 0.00 0.00 61 1018.7
20260904002216 18 152 1.6 4.8 0.00 0.00 0.00 61 1018.8
20260904002116 18 156 3.2 4.8 0.00 0.00 0.00 61 1018.6
20260904002017 18 158 1.6 4.8 0.00 0.00 0.00 61 1018.8
20260904001916 18 157 3.2 4.8 0.00 0.00 0.00 61 1018.7
20260904001817 17 155 0.0 4.8 0.00 0.00 0.00 61 1018.8
20260904001717 17 155 3.2 4.8 0.00 0.00 0.00 61 1018.9
20260904001616 17 159 1.6 4.8 0.00 0.00 0.00 61 1018.8
20260904001516 17 160 0.0 4.8 0.00 0.00 0.00 62 1018.6
20260904001417 17 162 3.2 4.8 0.00 0.00 0.00 62 1018.7
20260904001316 17 165 3.2 4.8 0.00 0.00 0.00 62 1018.7
20260904001217 17 167 0.0 4.8 0.00 0.00 0.00 62 1018.8
20260904001117 17 167 0.0 4.8 0.00 0.00 0.00 62 1018.9
20260904001016 17 169 0.0 4.8 0.00 0.00 0.00 62 1018.8
20260904000917 17 169 0.0 4.8 0.00 0.00 0.00 62 1018.7
20260904000817 17 171 0.0 4.8 0.00 0.00 0.00 62 1018.8
20260904000717 17 168 3.2 6.4 0.00 0.00 0.00 62 1018.8
20260904000616 17 165 0.0 6.4 0.00 0.00 0.00 62 1018.8
20260904000517 17 160 0.0 6.4 0.00 0.00 0.00 62 1018.9
20260904000417 17 155 0.0 6.4 0.00 0.00 0.00 62 1018.8
20260904000318 17 150 0.0 6.4 0.00 0.00 0.00 62 1019.1
20260904000218 17 146 0.0 6.4 0.00 0.00 0.00 62 1018.9
20260904000118 17 142 0.0 6.4 0.00 0.00 0.00 62 1018.8
20260904000016 17 138 0.0 6.4 0.00 0.00 0.00 62 1018.9
20260903235916 17 137 1.6 6.4 0.00 0.00 0.00 62 1018.8
20260903235817 17 135 3.2 6.4 0.00 0.00 0.00 62 1019.0
20260903235716 17 141 4.8 6.4 0.00 0.00 0.00 62 1018.9
20260903235617 17 142 0.0 6.4 0.00 0.00 0.00 62 1019.0
20260903235517 17 142 3.2 6.4 0.00 0.00 0.00 62 1018.9
20260903235417 17 139 3.2 6.4 0.00 0.00 0.00 62 1019.0
20260903235317 17 143 3.2 6.4 0.00 0.00 0.00 62 1018.9
20260903235216 17 148 3.2 6.4 0.00 0.00 0.00 62 1018.9
20260903235117 17 153 3.2 6.4 0.00 0.00 0.00 62 1019.0
20260903235016 17 154 1.6 6.4 0.00 0.00 0.00 62 1018.9
20260903234916 17 157 1.6 6.4 0.00 0.00 0.00 62 1018.8
20260903234817 17 161 1.6 6.4 0.00 0.00 0.00 63 1019.0
20260903234716 17 161 1.6 4.8 0.00 0.00 0.00 63 1019.0
20260903234617 17 159 1.6 4.8 0.00 0.00 0.00 63 1019.0
20260903234516 17 162 0.0 6.4 0.00 0.00 0.00 63 1018.9
20260903234417 17 171 3.2 6.4 0.00 0.00 0.00 63 1019.0
20260903234317 17 166 1.6 6.4 0.00 0.00 0.00 63 1019.0
20260903234216 17 161 0.0 6.4 0.00 0.00 0.00 63 1019.1
20260903234117 17 158 3.2 6.4 0.00 0.00 0.00 63 1019.2
20260903234016 17 154 3.2 6.4 0.00 0.00 0.00 63 1019.1
20260903233916 17 153 3.2 6.4 0.00 0.00 0.00 63 1019.1
20260903233818 17 146 1.6 6.4 0.00 0.00 0.00 63 1019.2
20260903233717 17 146 0.0 6.4 0.00 0.00 0.00 63 1019.2
20260903233616 17 144 1.6 6.4 0.00 0.00 0.00 63 1019.1
20260903233517 17 142 3.2 6.4 0.00 0.00 0.00 63 1019.1
20260903233416 17 135 3.2 4.8 0.00 0.00 0.00 63 1019.0
20260903233317 17 137 1.6 4.8 0.00 0.00 0.00 63 1019.0
20260903233216 17 140 1.6 4.8 0.00 0.00 0.00 63 1019.0
20260903233117 17 144 4.8 4.8 0.00 0.00 0.00 63 1019.1
20260903233017 17 153 0.0 4.8 0.00 0.00 0.00 63 1019.2
20260903232917 17 151 0.0 4.8 0.00 0.00 0.00 63 1019.3
20260903232816 17 151 1.6 4.8 0.00 0.00 0.00 63 1019.1
20260903232717 17 147 0.0 4.8 0.00 0.00 0.00 63 1019.4
20260903232616 17 151 4.8 4.8 0.00 0.00 0.00 63 1019.3
20260903232517 17 155 4.8 4.8 0.00 0.00 0.00 63 1019.3
20260903232417 17 154 1.6 4.8 0.00 0.00 0.00 63 1019.3
20260903232317 17 152 1.6 8.0 0.00 0.00 0.00 63 1019.2
20260903232216 17 157 3.2 8.0 0.00 0.00 0.00 63 1019.3
20260903232117 17 156 3.2 8.0 0.00 0.00 0.00 63 1019.1
20260903232017 17 150 1.6 8.0 0.00 0.00 0.00 63 1019.4
20260903231916 17 149 1.6 8.0 0.00 0.00 0.00 63 1019.2
20260903231816 17 149 0.0 8.0 0.00 0.00 0.00 63 1019.3
20260903231716 17 150 1.6 8.0 0.00 0.00 0.00 64 1019.3
20260903231617 17 150 1.6 8.0 0.00 0.00 0.00 64 1019.2
20260903231516 17 147 1.6 8.0 0.00 0.00 0.00 64 1019.2
20260903231417 17 147 3.2 8.0 0.00 0.00 0.00 64 1019.2
20260903231316 17 146 3.2 8.0 0.00 0.00 0.00 68 1019.3
20260903231217 17 141 4.8 8.0 0.00 0.00 0.00 68 1019.3
20260903231116 17 140 3.2 4.8 0.00 0.00 0.00 68 1019.3
20260903231016 17 140 3.2 4.8 0.00 0.00 0.00 68 1019.2
20260903230917 17 143 3.2 4.8 0.00 0.00 0.00 68 1019.4
20260903230816 17 142 1.6 4.8 0.00 0.00 0.00 68 1019.2
20260903230717 17 142 3.2 4.8 0.00 0.00 0.00 68 1019.3
20260903230617 17 138 1.6 4.8 0.00 0.00 0.00 68 1019.5
20260903230516 17 140 1.6 4.8 0.00 0.00 0.00 68 1019.4
20260903230417 17 140 1.6 4.8 0.00 0.00 0.00 68 1019.3
20260903230317 17 140 1.6 4.8 0.00 0.00 0.00 68 1019.2
20260903230218 17 148 1.6 4.8 0.00 0.00 0.00 68 1019.4
20260903230116 17 149 1.6 4.8 0.00 0.00 0.00 68 1019.3
20260903230017 17 149 1.6 4.8 0.00 0.00 0.00 68 1019.2
20260903225917 17 149 1.6 4.8 0.00 0.00 0.00 68 1019.4
20260903225818 17 149 0.0 4.8 0.00 0.00 0.00 68 1019.5
20260903225717 17 148 1.6 4.8 0.00 0.00 0.00 68 1019.3
20260903225616 17 149 0.0 4.8 0.00 0.00 0.00 64 1019.4
20260903225517 17 149 0.0 4.8 0.00 0.00 0.00 64 1019.4
20260903225417 17 148 0.0 4.8 0.00 0.00 0.00 64 1019.4
20260903225316 17 148 0.0 4.8 0.00 0.00 0.00 64 1019.4
20260903225217 17 145 3.2 4.8 0.00 0.00 0.00 69 1019.4
20260903225117 17 145 1.6 4.8 0.00 0.00 0.00 69 1019.3
20260903225016 17 146 3.2 4.8 0.00 0.00 0.00 69 1019.4
20260903224917 17 145 1.6 4.8 0.00 0.00 0.00 69 1019.4
20260903224816 17 143 1.6 4.8 0.00 0.00 0.00 69 1019.4
20260903224717 17 146 1.6 4.8 0.00 0.00 0.00 69 1019.5
20260903224618 17 146 3.2 4.8 0.00 0.00 0.00 69 1019.4
20260903224517 17 148 0.0 4.8 0.00 0.00 0.00 69 1019.4
20260903224416 17 147 0.0 4.8 0.00 0.00 0.00 69 1019.4
20260903224317 17 148 0.0 4.8 0.00 0.00 0.00 70 1019.5
20260903224217 17 146 1.6 4.8 0.00 0.00 0.00 70 1019.3
20260903224116 17 144 1.6 4.8 0.00 0.00 0.00 70 1019.4
20260903224017 17 145 0.0 4.8 0.00 0.00 0.00 70 1019.5
20260903223916 17 146 0.0 4.8 0.00 0.00 0.00 70 1019.5
20260903223816 17 149 1.6 4.8 0.00 0.00 0.00 70 1019.3
20260903223717 17 146 1.6 6.4 0.00 0.00 0.00 70 1019.4
20260903223618 17 144 0.0 6.4 0.00 0.00 0.00 70 1019.5
20260903223517 17 141 1.6 6.4 0.00 0.00 0.00 70 1019.4
20260903223417 17 141 0.0 6.4 0.00 0.00 0.00 70 1019.3
20260903223316 17 145 0.0 6.4 0.00 0.00 0.00 70 1019.4
20260903223217 17 144 1.6 6.4 0.00 0.00 0.00 70 1019.4
20260903223116 17 147 0.0 6.4 0.00 0.00 0.00 70 1019.4
20260903223017 17 146 1.6 6.4 0.00 0.00 0.00 70 1019.3
20260903222916 17 144 1.6 6.4 0.00 0.00 0.00 70 1019.4
20260903222817 17 145 1.6 6.4 0.00 0.00 0.00 70 1019.6
20260903222716 17 151 3.2 4.8 0.00 0.00 0.00 70 1019.5
20260903222617 17 154 0.0 4.8 0.00 0.00 0.00 70 1019.6
20260903222517 17 153 0.0 4.8 0.00 0.00 0.00 70 1019.4
20260903222416 17 156 1.6 4.8 0.00 0.00 0.00 70 1019.5
20260903222317 17 153 1.6 4.8 0.00 0.00 0.00 70 1019.6
20260903222216 17 158 1.6 4.8 0.00 0.00 0.00 70 1019.4
20260903222117 17 162 1.6 4.8 0.00 0.00 0.00 70 1019.5
20260903222017 17 159 1.6 4.8 0.00 0.00 0.00 70 1019.4
20260903221917 17 159 3.2 4.8 0.00 0.00 0.00 70 1019.7
20260903221816 17 161 3.2 4.8 0.00 0.00 0.00 70 1019.5
20260903221717 17 158 0.0 4.8 0.00 0.00 0.00 70 1019.5
20260903221616 17 155 1.6 4.8 0.00 0.00 0.00 70 1019.6
20260903221516 17 154 1.6 4.8 0.00 0.00 0.00 70 1019.6
20260903221417 17 152 1.6 4.8 0.00 0.00 0.00 70 1019.3
20260903221316 17 150 1.6 4.8 0.00 0.00 0.00 70 1019.5
20260903221217 17 147 3.2 4.8 0.00 0.00 0.00 70 1019.5
20260903221116 17 141 1.6 4.8 0.00 0.00 0.00 70 1019.5
20260903221018 17 141 3.2 4.8 0.00 0.00 0.00 70 1019.5
20260903220916 17 141 1.6 4.8 0.00 0.00 0.00 70 1019.7
20260903220817 17 138 3.2 4.8 0.00 0.00 0.00 70 1019.3
20260903220716 17 135 1.6 4.8 0.00 0.00 0.00 70 1019.8
20260903220617 17 135 1.6 4.8 0.00 0.00 0.00 70 1019.5
20260903220518 17 135 1.6 4.8 0.00 0.00 0.00 70 1019.8
20260903220416 17 139 1.6 4.8 0.00 0.00 0.00 70 1019.5
20260903220317 17 139 1.6 4.8 0.00 0.00 0.00 70 1019.5
20260903220218 17 139 1.6 4.8 0.00 0.00 0.00 70 1019.5
20260903220117 17 139 1.6 4.8 0.00 0.00 0.00 70 1019.5
20260903220017 17 139 1.6 4.8 0.00 0.00 0.00 70 1019.5
20260903215917 17 142 0.0 3.2 0.00 0.00 0.00 70 1019.7
20260903215818 17 143 0.0 3.2 0.00 0.00 0.00 70 1019.5
20260903215716 17 147 1.6 3.2 0.00 0.00 0.00 70 1019.5
20260903215616 17 151 0.0 3.2 0.00 0.00 0.00 70 1019.5
20260903215516 17 151 0.0 3.2 0.00 0.00 0.00 71 1019.7
20260903215417 17 146 1.6 3.2 0.00 0.00 0.00 71 1019.7
20260903215316 17 147 1.6 3.2 0.00 0.00 0.00 71 1019.9
20260903215216 17 148 0.0 4.8 0.00 0.00 0.00 71 1019.8
20260903215117 17 146 1.6 4.8 0.00 0.00 0.00 71 1019.8
20260903215017 17 148 0.0 4.8 0.00 0.00 0.00 71 1019.6
20260903214917 17 146 0.0 4.8 0.00 0.00 0.00 71 1019.6
20260903214816 17 143 0.0 4.8 0.00 0.00 0.00 71 1019.7
20260903214717 17 140 1.6 4.8 0.00 0.00 0.00 71 1019.6
20260903214616 17 136 0.0 4.8 0.00 0.00 0.00 71 1019.7
20260903214517 17 136 0.0 4.8 0.00 0.00 0.00 71 1019.5
20260903214417 17 136 0.0 4.8 0.00 0.00 0.00 71 1019.6
20260903214316 17 136 0.0 4.8 0.00 0.00 0.00 71 1019.7
20260903214217 17 139 1.6 4.8 0.00 0.00 0.00 71 1019.5
20260903214117 17 145 0.0 4.8 0.00 0.00 0.00 71 1019.5
20260903214016 17 148 0.0 4.8 0.00 0.00 0.00 71 1019.6
20260903213917 17 148 0.0 4.8 0.00 0.00 0.00 71 1019.5
20260903213817 17 150 1.6 4.8 0.00 0.00 0.00 71 1019.6
20260903213716 17 154 0.0 4.8 0.00 0.00 0.00 71 1019.6
20260903213617 17 158 1.6 4.8 0.00 0.00 0.00 71 1019.6
20260903213516 17 160 0.0 4.8 0.00 0.00 0.00 71 1019.6
20260903213417 17 158 0.0 4.8 0.00 0.00 0.00 71 1019.6
20260903213316 17 157 0.0 4.8 0.00 0.00 0.00 71 1019.6
20260903213217 17 154 0.0 4.8 0.00 0.00 0.00 71 1019.7
20260903213116 17 147 3.2 4.8 0.00 0.00 0.00 71 1019.6
20260903213016 17 135 0.0 0.0 0.00 0.00 0.00 71 1019.5
20260903212917 17 143 0.0 0.0 0.00 0.00 0.00 71 1019.6
20260903212816 17 149 0.0 0.0 0.00 0.00 0.00 71 1019.6
20260903212717 17 154 0.0 0.0 0.00 0.00 0.00 71 1019.7
20260903212617 17 157 0.0 0.0 0.00 0.00 0.00 71 1019.7
20260903212516 17 155 0.0 0.0 0.00 0.00 0.00 71 1019.7
20260903212416 17 156 0.0 0.0 0.00 0.00 0.00 71 1019.7
20260903212317 17 158 0.0 0.0 0.00 0.00 0.00 71 1019.8
20260903212216 17 157 0.0 0.0 0.00 0.00 0.00 71 1019.6
20260903212116 17 157 0.0 0.0 0.00 0.00 0.00 71 1019.7
20260903212017 17 158 0.0 0.0 0.00 0.00 0.00 71 1019.6
20260903211916 17 153 0.0 0.0 0.00 0.00 0.00 71 1019.8
20260903211817 17 147 0.0 0.0 0.00 0.00 0.00 71 1019.7
20260903211717 17 140 0.0 1.6 0.00 0.00 0.00 71 1019.7
20260903211617 17 141 0.0 1.6 0.00 0.00 0.00 71 1019.6
20260903211517 17 147 0.0 1.6 0.00 0.00 0.00 71 1019.3
20260903211418 17 145 0.0 3.2 0.00 0.00 0.00 71 1019.5
20260903211316 17 145 0.0 3.2 0.00 0.00 0.00 71 1019.3
20260903211217 17 145 0.0 3.2 0.00 0.00 0.00 71 1019.4
20260903211116 17 146 0.0 3.2 0.00 0.00 0.00 71 1019.4
20260903211017 17 146 0.0 3.2 0.00 0.00 0.00 71 1019.7
20260903210917 17 145 0.0 3.2 0.00 0.00 0.00 71 1019.6
20260903210816 17 144 0.0 3.2 0.00 0.00 0.00 71 1019.6
20260903210716 17 147 0.0 3.2 0.00 0.00 0.00 71 1019.6
20260903210617 17 148 0.0 3.2 0.00 0.00 0.00 71 1019.6
20260903210516 17 142 0.0 3.2 0.00 0.00 0.00 71 1019.4
20260903210417 17 143 1.6 3.2 0.00 0.00 0.00 71 1019.6
20260903210316 17 143 0.0 1.6 0.00 0.00 0.00 71 1019.6
20260903210217 17 142 0.0 1.6 0.00 0.00 0.00 71 1019.6
20260903210116 17 142 0.0 1.6 0.00 0.00 0.00 71 1019.6
20260903210017 17 143 0.0 1.6 0.00 0.00 0.00 71 1019.7
20260903205916 17 144 0.0 1.6 0.00 0.00 0.00 71 1019.8
20260903205817 17 145 0.0 1.6 0.00 0.00 0.00 71 1019.7
20260903205717 17 144 0.0 0.0 0.00 0.00 0.00 71 1019.6
20260903205616 17 136 0.0 0.0 0.00 0.00 0.00 71 1019.7
20260903205516 17 135 0.0 0.0 0.00 0.00 0.00 71 1019.7
20260903205417 17 135 0.0 0.0 0.00 0.00 0.00 71 1019.7
20260903205317 17 135 0.0 0.0 0.00 0.00 0.00 71 1019.6
20260903205216 17 135 0.0 0.0 0.00 0.00 0.00 71 1019.6
20260903205117 17 135 0.0 0.0 0.00 0.00 0.00 71 1019.5
20260903205016 17 135 0.0 0.0 0.00 0.00 0.00 71 1019.5
20260903204916 17 135 0.0 0.0 0.00 0.00 0.00 71 1019.5
20260903204817 17 144 0.0 0.0 0.00 0.00 0.00 71 1019.6
20260903204716 17 157 0.0 0.0 0.00 0.00 0.00 71 1019.5
20260903204617 17 153 0.0 0.0 0.00 0.00 0.00 71 1019.5
20260903204517 17 149 0.0 0.0 0.00 0.00 0.00 71 1019.7
20260903204417 17 148 0.0 0.0 0.00 0.00 0.00 71 1019.4
20260903204316 17 146 0.0 0.0 0.00 0.00 0.00 71 1019.5
20260903204217 17 146 0.0 0.0 0.00 0.00 0.00 71 1019.7
20260903204115 17 145 0.0 0.0 0.00 0.00 0.00 71 1019.5
20260903204016 17 145 0.0 0.0 0.00 0.00 0.00 71 1019.5
20260903203917 17 145 0.0 0.0 0.00 0.00 0.00 71 1019.5
20260903203816 17 143 0.0 0.0 0.00 0.00 0.00 71 1019.5
20260903203717 16 137 0.0 0.0 0.00 0.00 0.00 71 1019.5
20260903203616 16 135 0.0 0.0 0.00 0.00 0.00 71 1019.4
20260903203517 16 135 0.0 0.0 0.00 0.00 0.00 71 1019.5
20260903203417 16 135 0.0 0.0 0.00 0.00 0.00 71 1019.5
20260903203317 16 135 0.0 0.0 0.00 0.00 0.00 71 1019.5
20260903203216 16 135 0.0 0.0 0.00 0.00 0.00 71 1019.5
20260903203117 16 135 0.0 0.0 0.00 0.00 0.00 71 1019.4
20260903203016 17 135 0.0 0.0 0.00 0.00 0.00 71 1019.6
20260903202916 17 135 0.0 0.0 0.00 0.00 0.00 71 1019.4
20260903202817 17 135 0.0 0.0 0.00 0.00 0.00 71 1019.3
20260903202716 16 135 0.0 1.6 0.00 0.00 0.00 71 1019.5
20260903202617 16 135 0.0 1.6 0.00 0.00 0.00 71 1019.7
20260903202515 16 135 0.0 1.6 0.00 0.00 0.00 71 1019.6
20260903202416 16 135 0.0 1.6 0.00 0.00 0.00 71 1019.6
20260903202315 17 135 0.0 1.6 0.00 0.00 0.00 71 1019.5
20260903202216 17 135 0.0 1.6 0.00 0.00 0.00 71 1019.4
20260903202117 16 135 0.0 1.6 0.00 0.00 0.00 71 1019.7
20260903202016 16 133 0.0 1.6 0.00 0.00 0.00 71 1019.5
20260903201916 16 130 0.0 1.6 0.00 0.00 0.00 71 1019.6
20260903201817 16 129 0.0 1.6 0.00 0.00 0.00 71 1019.3
20260903201715 16 128 0.0 1.6 0.00 0.00 0.00 71 1019.5
20260903201616 16 125 0.0 1.6 0.00 0.00 0.00 70 1019.6
20260903201517 17 123 0.0 0.0 0.00 0.00 0.00 70 1019.6
20260903201416 17 120 0.0 0.0 0.00 0.00 0.00 70 1019.5
20260903201316 17 120 0.0 0.0 0.00 0.00 0.00 70 1019.5
20260903201217 17 120 0.0 0.0 0.00 0.00 0.00 70 1019.7
20260903201117 17 119 0.0 0.0 0.00 0.00 0.00 70 1019.5
20260903201016 17 118 0.0 0.0 0.00 0.00 0.00 70 1019.5
20260903200917 17 135 0.0 0.0 0.00 0.00 0.00 70 1019.7
20260903200816 17 135 0.0 0.0 0.00 0.00 0.00 70 1019.6
20260903200717 17 135 0.0 0.0 0.00 0.00 0.00 70 1019.7
20260903200616 17 135 0.0 0.0 0.00 0.00 0.00 70 1019.6
20260903200516 17 135 0.0 0.0 0.00 0.00 0.00 70 1019.6
20260903200417 17 135 0.0 0.0 0.00 0.00 0.00 70 1019.6
20260903200316 17 135 0.0 0.0 0.00 0.00 0.00 70 1019.9
20260903200217 17 135 0.0 0.0 0.00 0.00 0.00 70 1019.7
20260903200117 17 135 0.0 0.0 0.00 0.00 0.00 70 1019.7
20260903200017 17 135 0.0 0.0 0.00 0.00 0.00 70 1019.9
20260903195916 17 135 0.0 0.0 0.00 0.00 0.00 70 1019.6
20260903195817 17 135 0.0 0.0 0.00 0.00 0.00 70 1019.7
20260903195716 17 147 0.0 0.0 0.00 0.00 0.00 70 1019.9
20260903195617 17 152 0.0 0.0 0.00 0.00 0.00 70 1020.0
20260903195516 17 154 0.0 0.0 0.00 0.00 0.00 69 1019.8
20260903195417 17 154 0.0 0.0 0.00 0.00 0.00 69 1019.8
20260903195317 17 139 0.0 1.6 0.00 0.00 0.00 69 1019.8
20260903195216 17 147 0.0 3.2 0.00 0.00 0.00 69 1019.8
20260903195117 17 151 0.0 3.2 0.00 0.00 0.00 69 1019.8
20260903195017 17 154 0.0 3.2 0.00 0.00 0.00 69 1019.7
20260903194916 17 152 0.0 3.2 0.00 0.00 0.00 69 1019.9
20260903194817 17 152 0.0 3.2 0.00 0.00 0.00 68 1019.8
20260903194716 17 150 0.0 3.2 0.00 0.00 0.00 68 1019.9
20260903194617 17 150 0.0 3.2 0.00 0.00 0.00 68 1019.8
20260903194515 17 150 0.0 3.2 0.00 0.00 0.00 67 1019.8
20260903194416 17 150 0.0 3.2 0.00 0.00 0.00 67 1019.8
20260903194317 17 156 0.0 3.2 0.00 0.00 0.00 67 1020.0
20260903194218 17 158 0.0 3.2 0.00 0.00 0.00 67 1019.9
20260903194116 17 148 0.0 0.0 0.00 0.00 0.00 63 1019.9
20260903194016 17 139 0.0 0.0 0.00 0.00 0.00 63 1020.0
20260903193917 17 135 0.0 0.0 0.00 0.00 0.00 63 1020.0
20260903193816 17 0 0.0 0.0 0.00 0.00 0.00 63 1019.9
20260903193716 17 135 0.0 1.6 0.00 0.00 0.00 63 1020.0
20260903193617 17 135 0.0 1.6 0.00 0.00 0.00 62 1019.7
20260903193516 17 135 0.0 1.6 0.00 0.00 0.00 62 1019.7
20260903193416 17 135 0.0 1.6 0.00 0.00 0.00 62 1019.8
20260903193316 17 135 0.0 1.6 0.00 0.00 0.00 62 1019.9
20260903193217 17 135 0.0 1.6 0.00 0.00 0.00 62 1020.0
20260903193117 17 144 0.0 1.6 0.00 0.00 0.00 62 1020.0
20260903193017 17 146 0.0 1.6 0.00 0.00 0.00 62 1019.7
20260903192917 17 146 0.0 1.6 0.00 0.00 0.00 62 1019.8
20260903192816 17 146 0.0 1.6 0.00 0.00 0.00 62 1019.9
20260903192717 17 148 0.0 1.6 0.00 0.00 0.00 62 1019.9
20260903192617 17 154 0.0 1.6 0.00 0.00 0.00 62 1020.0
20260903192517 17 157 0.0 1.6 0.00 0.00 0.00 62 1019.9
20260903192417 17 157 0.0 1.6 0.00 0.00 0.00 62 1020.2
20260903192316 17 157 0.0 1.6 0.00 0.00 0.00 62 1020.0
20260903192216 17 163 0.0 1.6 0.00 0.00 0.00 62 1020.2
20260903192117 17 181 0.0 1.6 0.00 0.00 0.00 62 1020.0
20260903192016 17 0 0.0 0.0 0.00 0.00 0.00 62 1020.0
20260903191917 17 0 0.0 0.0 0.00 0.00 0.00 62 1019.8
20260903191816 17 0 0.0 0.0 0.00 0.00 0.00 62 1019.8
20260903191716 17 135 0.0 0.0 0.00 0.00 0.00 62 1019.9
20260903191617 17 135 0.0 0.0 0.00 0.00 0.00 62 1019.9
20260903191516 17 135 0.0 0.0 0.00 0.00 0.00 61 1019.9
20260903191417 17 135 0.0 0.0 0.00 0.00 0.00 61 1020.1
20260903191316 17 135 0.0 0.0 0.00 0.00 0.00 61 1019.9
20260903191216 17 135 0.0 0.0 0.00 0.00 0.00 61 1020.1
20260903191117 17 135 0.0 0.0 0.00 0.00 0.00 61 1020.0
20260903191017 17 135 0.0 0.0 0.00 0.00 0.00 61 1019.9
20260903190917 17 142 0.0 0.0 0.00 0.00 0.00 61 1020.1
20260903190816 17 142 0.0 0.0 0.00 0.00 0.00 61 1020.1
20260903190717 17 142 0.0 0.0 0.00 0.00 0.00 61 1020.0
20260903190616 17 145 0.0 0.0 0.00 0.00 0.00 61 1020.0
20260903190517 18 159 0.0 0.0 0.00 0.00 0.00 61 1020.0
20260903190416 18 162 0.0 0.0 0.00 0.00 0.00 61 1019.9
20260903190317 18 162 0.0 0.0 0.00 0.00 0.00 61 1019.9
20260903190216 18 162 0.0 0.0 0.00 0.00 0.00 61 1019.9
20260903190116 18 153 0.0 0.0 0.00 0.00 0.00 61 1019.9
20260903190017 18 154 0.0 0.0 0.00 0.00 0.00 61 1020.0
20260903185917 18 148 0.0 0.0 0.00 0.00 0.00 61 1019.9
20260903185816 18 148 0.0 0.0 0.00 0.00 0.00 61 1019.9
20260903185717 18 148 0.0 0.0 0.00 0.00 0.00 61 1020.0
20260903185617 18 148 0.0 0.0 0.00 0.00 0.00 61 1019.9
20260903185516 18 135 0.0 0.0 0.00 0.00 0.00 61 1019.9
20260903185417 18 135 0.0 0.0 0.00 0.00 0.00 61 1019.8
20260903185317 18 135 0.0 0.0 0.00 0.00 0.00 60 1019.9
20260903185216 18 135 0.0 0.0 0.00 0.00 0.00 60 1020.1
20260903185117 18 135 0.0 0.0 0.00 0.00 0.00 60 1019.9
20260903185016 18 135 0.0 0.0 0.00 0.00 0.00 60 1020.0
20260903184917 18 135 0.0 0.0 0.00 0.00 0.00 60 1020.0
20260903184817 18 135 0.0 0.0 0.00 0.00 0.00 60 1019.8
20260903184716 18 135 0.0 0.0 0.00 0.00 0.00 60 1020.1
20260903184617 18 135 0.0 0.0 0.00 0.00 0.00 60 1019.9
20260903184516 18 135 0.0 0.0 0.00 0.00 0.00 60 1020.1
20260903184416 18 135 0.0 0.0 0.00 0.00 0.00 60 1020.1
20260903184317 18 135 0.0 0.0 0.00 0.00 0.00 60 1019.9
20260903184216 18 142 0.0 0.0 0.00 0.00 0.00 60 1019.9
20260903184116 18 150 0.0 0.0 0.00 0.00 0.00 60 1019.8
20260903184017 18 153 0.0 0.0 0.00 0.00 0.00 60 1020.1
20260903183917 18 154 0.0 0.0 0.00 0.00 0.00 61 1020.0
20260903183816 17 156 0.0 0.0 0.00 0.00 0.00 61 1019.8
20260903183717 17 151 0.0 0.0 0.00 0.00 0.00 61 1019.9
20260903183617 17 152 0.0 0.0 0.00 0.00 0.00 61 1020.0
20260903183516 17 150 0.0 0.0 0.00 0.00 0.00 61 1019.9
20260903183417 17 152 0.0 0.0 0.00 0.00 0.00 61 1020.0
20260903183317 17 152 0.0 0.0 0.00 0.00 0.00 61 1020.1
20260903183216 17 147 0.0 0.0 0.00 0.00 0.00 61 1020.0
20260903183117 17 138 0.0 0.0 0.00 0.00 0.00 61 1019.9
20260903183017 18 139 0.0 0.0 0.00 0.00 0.00 61 1019.8
20260903182916 18 129 0.0 0.0 0.00 0.00 0.00 61 1020.0
20260903182817 18 103 0.0 0.0 0.00 0.00 0.00 61 1019.9
20260903182717 18 135 0.0 0.0 0.00 0.00 0.00 61 1019.9
20260903182617 18 135 0.0 0.0 0.00 0.00 0.00 61 1020.0
20260903182517 18 135 0.0 0.0 0.00 0.00 0.00 60 1019.9
20260903182416 18 135 0.0 0.0 0.00 0.00 0.00 60 1019.9
20260903182317 18 115 0.0 0.0 0.00 0.00 0.00 60 1019.9
20260903182216 18 112 0.0 0.0 0.00 0.00 0.00 60 1020.0
20260903182116 18 112 0.0 0.0 0.00 0.00 0.00 60 1020.0
20260903182017 18 112 0.0 0.0 0.00 0.00 0.00 60 1019.8
20260903181917 18 112 0.0 0.0 0.00 0.00 0.00 60 1020.0
20260903181816 18 112 0.0 0.0 0.00 0.00 0.00 60 1020.0
20260903181717 18 112 0.0 0.0 0.00 0.00 0.00 60 1019.9
20260903181616 18 112 0.0 0.0 0.00 0.00 0.00 60 1019.8
20260903181516 18 112 0.0 0.0 0.00 0.00 0.00 59 1020.1
20260903181417 18 106 0.0 0.0 0.00 0.00 0.00 59 1019.8
20260903181316 18 90 0.0 0.0 0.00 0.00 0.00 59 1019.9
20260903181216 18 0 0.0 0.0 0.00 0.00 0.00 58 1020.0
20260903181117 18 0 0.0 0.0 0.00 0.00 0.00 58 1020.0
20260903181016 18 0 0.0 0.0 0.00 0.00 0.00 58 1020.0
20260903180917 18 0 0.0 0.0 0.00 0.00 0.00 57 1020.0
20260903180816 18 0 0.0 0.0 0.00 0.00 0.00 57 1019.8
20260903180717 18 0 0.0 0.0 0.00 0.00 0.00 57 1019.8
20260903180618 18 0 0.0 0.0 0.00 0.00 0.00 57 1019.8
20260903180516 18 0 0.0 0.0 0.00 0.00 0.00 57 1019.8
20260903180416 18 0 0.0 0.0 0.00 0.00 0.00 57 1020.0
20260903180318 18 0 0.0 0.0 0.00 0.00 0.00 57 1020.0
20260903180217 18 0 0.0 0.0 0.00 0.00 0.00 57 1019.9
20260903180116 18 0 0.0 0.0 0.00 0.00 0.00 57 1019.8
20260903180017 18 0 0.0 0.0 0.00 0.00 0.00 57 1019.9
20260903175916 18 0 0.0 0.0 0.00 0.00 0.00 56 1019.7
20260903175817 18 0 0.0 0.0 0.00 0.00 0.00 56 1019.8
20260903175716 18 0 0.0 0.0 0.00 0.00 0.00 56 1019.7
20260903175617 18 0 0.0 0.0 0.00 0.00 0.00 56 1019.8
20260903175516 18 0 0.0 0.0 0.00 0.00 0.00 56 1019.8
20260903175417 18 0 0.0 0.0 0.00 0.00 0.00 56 1019.9
20260903175316 18 0 0.0 0.0 0.00 0.00 0.00 56 1019.9
20260903175217 18 181 0.0 0.0 0.00 0.00 0.00 56 1019.8
20260903175116 18 181 0.0 1.6 0.00 0.00 0.00 55 1019.9
20260903175016 18 181 0.0 1.6 0.00 0.00 0.00 55 1019.9
20260903174917 18 178 0.0 1.6 0.00 0.00 0.00 55 1019.9
20260903174816 19 167 0.0 1.6 0.00 0.00 0.00 55 1019.7
20260903174717 19 165 0.0 1.6 0.00 0.00 0.00 55 1019.9
20260903174617 19 165 0.0 1.6 0.00 0.00 0.00 55 1019.9
20260903174516 19 166 0.0 1.6 0.00 0.00 0.00 55 1019.8
20260903174416 19 167 0.0 1.6 0.00 0.00 0.00 55 1019.7
20260903174316 19 167 0.0 1.6 0.00 0.00 0.00 55 1019.9
20260903174217 19 167 0.0 1.6 0.00 0.00 0.00 55 1020.0
20260903174116 19 161 0.0 1.6 0.00 0.00 0.00 55 1019.7
20260903174017 19 162 0.0 0.0 0.00 0.00 0.00 55 1019.7
20260903173917 19 163 0.0 0.0 0.00 0.00 0.00 55 1019.9
20260903173817 19 172 0.0 0.0 0.00 0.00 0.00 55 1019.8
20260903173718 19 181 0.0 0.0 0.00 0.00 0.00 55 1019.5
20260903173616 19 176 0.0 0.0 0.00 0.00 0.00 55 1019.7
20260903173517 19 166 0.0 0.0 0.00 0.00 0.00 55 1019.8
20260903173417 19 161 0.0 0.0 0.00 0.00 0.00 55 1019.6
20260903173316 19 161 0.0 0.0 0.00 0.00 0.00 56 1019.8
20260903173217 19 161 0.0 0.0 0.00 0.00 0.00 56 1019.7
20260903173116 19 160 0.0 0.0 0.00 0.00 0.00 56 1019.7
20260903173016 19 158 0.0 0.0 0.00 0.00 0.00 56 1019.5
20260903172916 19 156 0.0 0.0 0.00 0.00 0.00 56 1019.6
20260903172817 19 156 0.0 0.0 0.00 0.00 0.00 56 1019.5
20260903172717 19 149 0.0 0.0 0.00 0.00 0.00 56 1019.4
20260903172616 19 147 0.0 0.0 0.00 0.00 0.00 56 1019.7
20260903172517 19 160 0.0 0.0 0.00 0.00 0.00 56 1019.5
20260903172416 20 160 0.0 0.0 0.00 0.00 0.00 56 1019.6
20260903172316 20 156 0.0 0.0 0.00 0.00 0.00 56 1019.6
20260903172217 20 152 0.0 0.0 0.00 0.00 0.00 56 1019.5
20260903172116 20 149 0.0 0.0 0.00 0.00 0.00 56 1019.6
20260903172018 20 143 0.0 0.0 0.00 0.00 0.00 56 1019.4
20260903171916 20 142 0.0 0.0 0.00 0.00 0.00 56 1019.5
20260903171817 20 142 0.0 0.0 0.00 0.00 0.00 57 1019.4
20260903171717 20 142 0.0 0.0 0.00 0.00 0.00 57 1019.6
20260903171616 20 144 0.0 0.0 0.00 0.00 0.00 57 1019.6
20260903171518 20 135 0.0 0.0 0.00 0.00 0.00 57 1019.6
20260903171417 20 135 0.0 0.0 0.00 0.00 0.00 57 1019.6
20260903171317 20 135 0.0 0.0 0.00 0.00 0.00 56 1019.5
20260903171216 20 135 0.0 0.0 0.00 0.00 0.00 56 1019.7
20260903171116 20 0 0.0 0.0 0.00 0.00 0.00 56 1019.5
20260903171016 20 0 0.0 0.0 0.00 0.00 0.00 56 1019.7
20260903170916 20 0 0.0 0.0 0.00 0.00 0.00 56 1019.7
20260903170817 20 0 0.0 0.0 0.00 0.00 0.00 56 1019.5
20260903170716 20 0 0.0 0.0 0.00 0.00 0.00 56 1019.5
20260903170616 20 0 0.0 0.0 0.00 0.00 0.00 56 1019.5
20260903170516 20 0 0.0 0.0 0.00 0.00 0.00 56 1019.5
20260903170417 20 0 0.0 0.0 0.00 0.00 0.00 56 1019.4
20260903170318 20 0 0.0 0.0 0.00 0.00 0.00 55 1019.5
20260903170217 20 0 0.0 0.0 0.00 0.00 0.00 55 1019.7
20260903170116 20 0 0.0 0.0 0.00 0.00 0.00 55 1019.6
20260903170017 20 0 0.0 0.0 0.00 0.00 0.00 55 1019.6
20260903165917 20 0 0.0 0.0 0.00 0.00 0.00 55 1019.5
20260903165817 20 0 0.0 0.0 0.00 0.00 0.00 55 1019.7
20260903165717 20 0 0.0 0.0 0.00 0.00 0.00 55 1019.5
20260903165616 20 0 0.0 0.0 0.00 0.00 0.00 55 1019.4
20260903165516 20 0 0.0 0.0 0.00 0.00 0.00 55 1019.4
20260903165417 20 0 0.0 0.0 0.00 0.00 0.00 54 1019.5
20260903165317 21 181 0.0 0.0 0.00 0.00 0.00 54 1019.6
20260903165216 21 181 0.0 0.0 0.00 0.00 0.00 54 1019.5
20260903165117 21 181 0.0 0.0 0.00 0.00 0.00 54 1019.4
20260903165016 21 181 0.0 0.0 0.00 0.00 0.00 54 1019.5
20260903164916 21 181 0.0 0.0 0.00 0.00 0.00 54 1019.6
20260903164817 21 181 0.0 0.0 0.00 0.00 0.00 54 1019.7
20260903164716 21 181 0.0 0.0 0.00 0.00 0.00 53 1019.3
20260903164617 21 194 0.0 0.0 0.00 0.00 0.00 53 1019.5
20260903164517 21 196 0.0 0.0 0.00 0.00 0.00 53 1019.5
20260903164416 21 196 0.0 0.0 0.00 0.00 0.00 53 1019.6
20260903164316 21 203 0.0 0.0 0.00 0.00 0.00 53 1019.4
20260903164216 21 203 0.0 0.0 0.00 0.00 0.00 53 1019.6
20260903164117 21 193 0.0 0.0 0.00 0.00 0.00 53 1019.7
20260903164017 21 171 0.0 0.0 0.00 0.00 0.00 53 1019.4
20260903163916 21 160 0.0 0.0 0.00 0.00 0.00 52 1019.5
20260903163817 21 166 0.0 0.0 0.00 0.00 0.00 52 1019.4
20260903163717 21 168 0.0 0.0 0.00 0.00 0.00 52 1019.5
20260903163616 21 152 0.0 0.0 0.00 0.00 0.00 52 1019.6
20260903163517 21 145 0.0 0.0 0.00 0.00 0.00 52 1019.5
20260903163417 21 145 0.0 0.0 0.00 0.00 0.00 52 1019.5
20260903163316 21 145 0.0 0.0 0.00 0.00 0.00 52 1019.3
20260903163217 21 145 0.0 0.0 0.00 0.00 0.00 52 1019.6
20260903163116 21 149 0.0 0.0 0.00 0.00 0.00 51 1019.5
20260903163016 21 166 0.0 3.2 0.00 0.00 0.00 51 1019.4
20260903162916 21 172 0.0 3.2 0.00 0.00 0.00 51 1019.6
20260903162817 21 161 0.0 3.2 0.00 0.00 0.00 51 1019.5
20260903162716 21 158 0.0 3.2 0.00 0.00 0.00 51 1019.5
20260903162617 21 161 0.0 3.2 0.00 0.00 0.00 51 1019.4
20260903162516 21 164 0.0 4.8 0.00 0.00 0.00 51 1019.5
20260903162417 21 186 0.0 4.8 0.00 0.00 0.00 51 1019.6
20260903162316 22 184 0.0 4.8 0.00 0.00 0.00 51 1019.5
20260903162217 22 175 0.0 4.8 0.00 0.00 0.00 51 1019.6
20260903162116 22 176 0.0 4.8 0.00 0.00 0.00 50 1019.6
20260903162016 22 178 1.6 4.8 0.00 0.00 0.00 50 1019.5
20260903161917 22 179 0.0 4.8 0.00 0.00 0.00 50 1019.5
20260903161818 22 183 0.0 4.8 0.00 0.00 0.00 50 1019.4
20260903161716 22 185 0.0 4.8 0.00 0.00 0.00 50 1019.4
20260903161617 22 183 0.0 4.8 0.00 0.00 0.00 50 1019.4
20260903161516 22 190 1.6 4.8 0.00 0.00 0.00 50 1019.4
20260903161417 22 188 1.6 4.8 0.00 0.00 0.00 50 1019.6
20260903161316 22 193 1.6 4.8 0.00 0.00 0.00 50 1019.3
20260903161216 22 203 1.6 4.8 0.00 0.00 0.00 50 1019.5
20260903161117 22 207 0.0 4.8 0.00 0.00 0.00 50 1019.4
20260903161017 22 207 0.0 4.8 0.00 0.00 0.00 50 1019.5
20260903160917 22 205 0.0 4.8 0.00 0.00 0.00 50 1019.6
20260903160816 22 205 1.6 4.8 0.00 0.00 0.00 50 1019.5
20260903160717 22 207 0.0 4.8 0.00 0.00 0.00 50 1019.5
20260903160616 22 205 3.2 4.8 0.00 0.00 0.00 50 1019.5
20260903160516 22 207 1.6 4.8 0.00 0.00 0.00 51 1019.5
20260903160417 22 206 1.6 4.8 0.00 0.00 0.00 51 1019.6
20260903160318 22 205 1.6 4.8 0.00 0.00 0.00 51 1019.6
20260903160216 22 208 1.6 4.8 0.00 0.00 0.00 51 1019.6
20260903160117 22 206 1.6 4.8 0.00 0.00 0.00 51 1019.5
20260903160018 22 199 1.6 6.4 0.00 0.00 0.00 51 1019.5
20260903155917 22 201 0.0 6.4 0.00 0.00 0.00 51 1019.3
20260903155818 22 206 0.0 6.4 0.00 0.00 0.00 51 1019.4
20260903155717 22 210 3.2 6.4 0.00 0.00 0.00 48 1019.5
20260903155616 22 230 3.2 6.4 0.00 0.00 0.00 48 1019.5
20260903155516 22 233 0.0 6.4 0.00 0.00 0.00 48 1019.6
20260903155417 22 230 0.0 6.4 0.00 0.00 0.00 48 1019.4
20260903155316 22 224 3.2 6.4 0.00 0.00 0.00 48 1019.3
20260903155216 22 220 0.0 6.4 0.00 0.00 0.00 48 1019.4
20260903155116 22 222 0.0 6.4 0.00 0.00 0.00 48 1019.4
20260903155017 22 226 4.8 6.4 0.00 0.00 0.00 47 1019.6
20260903154917 22 221 0.0 4.8 0.00 0.00 0.00 47 1019.6
20260903154816 22 215 0.0 4.8 0.00 0.00 0.00 47 1019.4
20260903154717 22 220 3.2 4.8 0.00 0.00 0.00 47 1019.6
20260903154617 22 207 3.2 4.8 0.00 0.00 0.00 47 1019.4
20260903154516 22 197 3.2 4.8 0.00 0.00 0.00 48 1019.5
20260903154416 22 206 0.0 4.8 0.00 0.00 0.00 47 1019.5
20260903154317 22 221 1.6 4.8 0.00 0.00 0.00 47 1019.5
20260903154217 22 229 0.0 4.8 0.00 0.00 0.00 47 1019.4
20260903154116 22 245 0.0 4.8 0.00 0.00 0.00 47 1019.6
20260903154017 22 287 0.0 4.8 0.00 0.00 0.00 47 1019.6
20260903153916 22 288 1.6 4.8 0.00 0.00 0.00 47 1019.6
20260903153817 22 276 0.0 4.8 0.00 0.00 0.00 47 1019.5
20260903153717 22 264 1.6 4.8 0.00 0.00 0.00 47 1019.5
20260903153616 22 262 0.0 4.8 0.00 0.00 0.00 47 1019.4
20260903153517 22 263 1.6 4.8 0.00 0.00 0.00 46 1019.5
20260903153416 22 254 0.0 4.8 0.00 0.00 0.00 47 1019.5
20260903153316 22 223 0.0 4.8 0.00 0.00 0.00 47 1019.4
20260903153217 22 212 0.0 4.8 0.00 0.00 0.00 47 1019.6
20260903153117 22 198 3.2 4.8 0.00 0.00 0.00 47 1019.5
20260903153016 22 189 3.2 4.8 0.00 0.00 0.00 47 1019.5
20260903152917 22 182 0.0 4.8 0.00 0.00 0.00 47 1019.5
20260903152816 22 182 3.2 4.8 0.00 0.00 0.00 47 1019.4
20260903152716 22 164 0.0 4.8 0.00 0.00 0.00 48 1019.6
20260903152618 22 157 0.0 4.8 0.00 0.00 0.00 48 1019.6
20260903152517 22 164 1.6 4.8 0.00 0.00 0.00 48 1019.5
20260903152417 22 177 0.0 4.8 0.00 0.00 0.00 48 1019.4
20260903152317 22 187 0.0 4.8 0.00 0.00 0.00 48 1019.4
20260903152216 22 194 0.0 4.8 0.00 0.00 0.00 48 1019.7
20260903152117 22 214 0.0 6.4 0.00 0.00 0.00 47 1019.4
20260903152016 22 265 1.6 9.7 0.00 0.00 0.00 47 1019.6
20260903151917 22 308 0.0 9.7 0.00 0.00 0.00 47 1019.5
20260903151818 22 303 0.0 9.7 0.00 0.00 0.00 47 1019.6
20260903151716 22 294 3.2 9.7 0.00 0.00 0.00 47 1019.5
20260903151617 22 283 0.0 9.7 0.00 0.00 0.00 47 1019.5
20260903151516 22 269 1.6 9.7 0.00 0.00 0.00 47 1019.4
20260903151417 22 260 0.0 9.7 0.00 0.00 0.00 47 1019.6
20260903151316 22 257 0.0 9.7 0.00 0.00 0.00 46 1019.5
20260903151217 22 255 0.0 9.7 0.00 0.00 0.00 46 1019.5
20260903151116 22 259 3.2 9.7 0.00 0.00 0.00 46 1019.7
20260903151017 22 245 6.4 9.7 0.00 0.00 0.00 46 1019.4
20260903150916 22 234 4.8 8.0 0.00 0.00 0.00 46 1019.5
20260903150817 22 234 3.2 4.8 0.00 0.00 0.00 46 1019.4
20260903150717 22 230 0.0 4.8 0.00 0.00 0.00 46 1019.5
20260903150616 22 234 1.6 4.8 0.00 0.00 0.00 45 1019.6
20260903150517 22 228 1.6 4.8 0.00 0.00 0.00 45 1019.4
20260903150417 22 217 1.6 6.4 0.00 0.00 0.00 45 1019.4
20260903150317 22 217 1.6 6.4 0.00 0.00 0.00 45 1019.6
20260903150217 22 212 1.6 6.4 0.00 0.00 0.00 45 1019.8
20260903150118 22 212 1.6 6.4 0.00 0.00 0.00 45 1019.7
20260903150016 22 201 1.6 6.4 0.00 0.00 0.00 45 1019.7
20260903145916 22 197 1.6 6.4 0.00 0.00 0.00 45 1019.7
20260903145817 22 171 3.2 6.4 0.00 0.00 0.00 45 1019.7
20260903145716 22 160 1.6 6.4 0.00 0.00 0.00 45 1019.7
20260903145617 22 142 1.6 6.4 0.00 0.00 0.00 45 1019.7
20260903145516 22 134 1.6 6.4 0.00 0.00 0.00 45 1019.9
20260903145417 22 158 4.8 6.4 0.00 0.00 0.00 45 1019.7
20260903145318 23 125 4.8 6.4 0.00 0.00 0.00 45 1019.7
20260903145216 23 116 1.6 4.8 0.00 0.00 0.00 46 1019.7
20260903145117 23 115 1.6 4.8 0.00 0.00 0.00 46 1019.7
20260903145016 23 114 1.6 4.8 0.00 0.00 0.00 46 1019.6
20260903144917 23 136 0.0 6.4 0.00 0.00 0.00 46 1019.8
20260903144817 23 173 3.2 6.4 0.00 0.00 0.00 46 1019.9
20260903144718 23 177 0.0 6.4 0.00 0.00 0.00 46 1019.6
20260903144616 23 172 0.0 6.4 0.00 0.00 0.00 46 1019.7
20260903144517 23 201 1.6 6.4 0.00 0.00 0.00 45 1019.8
20260903144417 23 215 1.6 6.4 0.00 0.00 0.00 45 1019.6
20260903144316 23 221 3.2 6.4 0.00 0.00 0.00 46 1019.9
20260903144216 23 229 0.0 6.4 0.00 0.00 0.00 46 1019.7
20260903144117 23 238 0.0 6.4 0.00 0.00 0.00 46 1019.7
20260903144017 23 245 1.6 6.4 0.00 0.00 0.00 45 1019.7
20260903143916 23 243 4.8 6.4 0.00 0.00 0.00 45 1019.7
20260903143817 23 249 4.8 6.4 0.00 0.00 0.00 45 1019.7
20260903143718 23 252 0.0 4.8 0.00 0.00 0.00 46 1019.7
20260903143616 23 247 0.0 4.8 0.00 0.00 0.00 45 1019.7
20260903143517 23 247 4.8 4.8 0.00 0.00 0.00 46 1019.7
20260903143417 23 255 3.2 6.4 0.00 0.00 0.00 46 1019.7
20260903143316 23 250 0.0 6.4 0.00 0.00 0.00 46 1019.8
20260903143217 23 271 0.0 6.4 0.00 0.00 0.00 46 1019.9
20260903143116 23 281 0.0 6.4 0.00 0.00 0.00 46 1019.7
20260903143017 23 287 0.0 6.4 0.00 0.00 0.00 46 1019.9
20260903142917 23 291 0.0 6.4 0.00 0.00 0.00 46 1020.0
20260903142818 23 305 0.0 6.4 0.00 0.00 0.00 46 1019.8
20260903142717 23 313 0.0 6.4 0.00 0.00 0.00 45 1019.8
20260903142617 23 323 0.0 6.4 0.00 0.00 0.00 45 1019.7
20260903142517 23 322 1.6 6.4 0.00 0.00 0.00 45 1019.9
20260903142417 23 319 4.8 6.4 0.00 0.00 0.00 45 1019.7
20260903142317 23 326 1.6 6.4 0.00 0.00 0.00 45 1019.9
20260903142217 23 332 1.6 6.4 0.00 0.00 0.00 45 1019.7
20260903142116 23 334 4.8 6.4 0.00 0.00 0.00 45 1019.7
20260903142017 23 326 0.0 6.4 0.00 0.00 0.00 45 1019.7
20260903141917 23 303 1.6 6.4 0.00 0.00 0.00 45 1019.7
20260903141816 23 270 0.0 6.4 0.00 0.00 0.00 45 1019.6
20260903141716 23 238 1.6 6.4 0.00 0.00 0.00 45 1019.6
20260903141617 23 234 1.6 9.7 0.00 0.00 0.00 45 1019.6
20260903141516 23 223 4.8 9.7 0.00 0.00 0.00 45 1019.7
20260903141416 23 218 0.0 9.7 0.00 0.00 0.00 45 1019.6
20260903141317 23 222 0.0 9.7 0.00 0.00 0.00 44 1019.8
20260903141217 23 226 0.0 9.7 0.00 0.00 0.00 44 1019.6
20260903141116 23 230 4.8 9.7 0.00 0.00 0.00 44 1019.7
20260903141017 23 225 3.2 9.7 0.00 0.00 0.00 44 1019.6
20260903140916 23 236 1.6 9.7 0.00 0.00 0.00 44 1019.7
20260903140817 23 247 0.0 9.7 0.00 0.00 0.00 44 1019.7
20260903140717 23 260 1.6 9.7 0.00 0.00 0.00 44 1019.7
20260903140617 23 275 4.8 9.7 0.00 0.00 0.00 44 1019.8
20260903140516 23 291 3.2 9.7 0.00 0.00 0.00 43 1019.5
20260903140417 23 290 3.2 9.7 0.00 0.00 0.00 43 1019.6
20260903140318 23 286 3.2 9.7 0.00 0.00 0.00 43 1019.8
20260903140217 23 288 3.2 9.7 0.00 0.00 0.00 43 1020.0
20260903140118 23 297 3.2 9.7 0.00 0.00 0.00 43 1019.7
20260903140016 23 297 3.2 9.7 0.00 0.00 0.00 43 1019.7
20260903135916 23 259 4.8 9.7 0.00 0.00 0.00 43 1019.7
20260903135816 23 223 4.8 9.7 0.00 0.00 0.00 43 1019.7
20260903135717 23 226 1.6 8.0 0.00 0.00 0.00 43 1019.8
20260903135617 23 230 3.2 8.0 0.00 0.00 0.00 43 1019.8
20260903135516 23 231 3.2 8.0 0.00 0.00 0.00 43 1019.8
20260903135416 23 239 3.2 8.0 0.00 0.00 0.00 43 1019.8
20260903135317 23 245 4.8 8.0 0.00 0.00 0.00 43 1019.6
20260903135216 23 234 1.6 8.0 0.00 0.00 0.00 43 1019.7
20260903135117 23 221 1.6 8.0 0.00 0.00 0.00 42 1019.6
20260903135016 23 213 3.2 8.0 0.00 0.00 0.00 42 1019.8
20260903134916 23 212 1.6 8.0 0.00 0.00 0.00 42 1019.6
20260903134817 23 210 1.6 8.0 0.00 0.00 0.00 41 1019.6
20260903134718 23 194 3.2 8.0 0.00 0.00 0.00 41 1019.6
20260903134617 23 191 4.8 8.0 0.00 0.00 0.00 41 1019.8
20260903134516 23 192 1.6 8.0 0.00 0.00 0.00 42 1019.7
20260903134416 23 186 3.2 8.0 0.00 0.00 0.00 42 1019.8
20260903134317 23 165 4.8 8.0 0.00 0.00 0.00 42 1019.8
20260903134216 23 168 3.2 8.0 0.00 0.00 0.00 42 1019.8
20260903134116 23 221 4.8 8.0 0.00 0.00 0.00 42 1019.7
20260903134017 23 257 4.8 8.0 0.00 0.00 0.00 42 1019.6
20260903133918 23 255 1.6 8.0 0.00 0.00 0.00 43 1019.6
20260903133816 23 264 1.6 8.0 0.00 0.00 0.00 43 1019.6
20260903133717 24 270 4.8 8.0 0.00 0.00 0.00 43 1019.8
20260903133616 24 274 1.6 8.0 0.00 0.00 0.00 43 1019.7
20260903133517 24 266 3.2 8.0 0.00 0.00 0.00 43 1019.7
20260903133418 24 242 4.8 8.0 0.00 0.00 0.00 43 1019.7
20260903133317 24 237 1.6 6.4 0.00 0.00 0.00 43 1019.8
20260903133217 24 227 1.6 6.4 0.00 0.00 0.00 43 1019.6
20260903133117 24 222 4.8 6.4 0.00 0.00 0.00 42 1019.7
20260903133016 24 208 3.2 6.4 0.00 0.00 0.00 42 1019.8
20260903132918 24 192 3.2 8.0 0.00 0.00 0.00 42 1019.7
20260903132816 24 177 1.6 8.0 0.00 0.00 0.00 42 1019.8
20260903132717 24 220 0.0 8.0 0.00 0.00 0.00 42 1019.6
20260903132616 25 203 0.0 8.0 0.00 0.00 0.00 42 1019.8
20260903132517 25 203 1.6 8.0 0.00 0.00 0.00 42 1019.7
20260903132417 25 201 4.8 8.0 0.00 0.00 0.00 42 1019.6
20260903132317 25 200 1.6 8.0 0.00 0.00 0.00 42 1019.6
20260903132217 25 223 1.6 8.0 0.00 0.00 0.00 42 1019.6
20260903132116 25 223 1.6 8.0 0.00 0.00 0.00 42 1019.6
20260903132016 25 230 3.2 8.0 0.00 0.00 0.00 42 1019.4
20260903131916 25 239 4.8 8.0 0.00 0.00 0.00 42 1019.6
20260903131817 25 234 1.6 6.4 0.00 0.00 0.00 42 1019.6
20260903131717 25 228 1.6 9.7 0.00 0.00 0.00 42 1019.7
20260903131616 25 231 1.6 9.7 0.00 0.00 0.00 42 1019.6
20260903131517 25 234 3.2 9.7 0.00 0.00 0.00 42 1019.7
20260903131416 25 234 1.6 9.7 0.00 0.00 0.00 42 1019.6
20260903131317 25 233 0.0 9.7 0.00 0.00 0.00 42 1019.5
20260903131217 25 225 3.2 9.7 0.00 0.00 0.00 41 1019.8
20260903131116 25 219 1.6 9.7 0.00 0.00 0.00 42 1019.7
20260903131017 24 202 0.0 9.7 0.00 0.00 0.00 42 1019.6
20260903130917 24 150 0.0 9.7 0.00 0.00 0.00 42 1019.6
20260903130816 24 182 1.6 9.7 0.00 0.00 0.00 42 1019.5
20260903130717 24 211 0.0 4.8 0.00 0.00 0.00 41 1019.8
20260903130617 23 203 0.0 4.8 0.00 0.00 0.00 41 1019.6
20260903130516 23 218 0.0 9.7 0.00 0.00 0.00 41 1019.9
20260903130416 23 242 0.0 9.7 0.00 0.00 0.00 41 1019.7
20260903130317 23 255 0.0 9.7 0.00 0.00 0.00 41 1019.8
20260903130217 23 262 0.0 9.7 0.00 0.00 0.00 41 1019.8
20260903130117 23 251 0.0 9.7 0.00 0.00 0.00 41 1019.8
20260903130017 23 260 0.0 9.7 0.00 0.00 0.00 41 1019.7
20260903125917 23 260 3.2 9.7 0.00 0.00 0.00 41 1020.0
20260903125816 23 263 3.2 9.7 0.00 0.00 0.00 41 1020.0
20260903125717 23 239 3.2 9.7 0.00 0.00 0.00 41 1019.9
20260903125617 23 245 4.8 9.7 0.00 0.00 0.00 41 1019.9
20260903125517 24 255 4.8 9.7 0.00 0.00 0.00 41 1019.9
20260903125417 24 230 3.2 9.7 0.00 0.00 0.00 41 1020.1
20260903125316 24 229 0.0 8.0 0.00 0.00 0.00 42 1020.0
20260903125217 24 228 0.0 8.0 0.00 0.00 0.00 42 1019.9
20260903125117 24 232 1.6 8.0 0.00 0.00 0.00 41 1019.8
20260903125017 24 210 0.0 8.0 0.00 0.00 0.00 41 1020.1
20260903124916 24 215 3.2 8.0 0.00 0.00 0.00 41 1020.0
20260903124817 24 186 0.0 8.0 0.00 0.00 0.00 41 1019.9
20260903124716 24 176 3.2 8.0 0.00 0.00 0.00 41 1020.0
20260903124617 24 199 3.2 8.0 0.00 0.00 0.00 41 1019.9
20260903124516 24 183 3.2 9.7 0.00 0.00 0.00 41 1019.9
20260903124416 24 163 4.8 9.7 0.00 0.00 0.00 41 1019.9
20260903124316 24 181 4.8 9.7 0.00 0.00 0.00 42 1020.1
20260903124216 24 184 0.0 9.7 0.00 0.00 0.00 42 1020.0
20260903124116 24 172 0.0 9.7 0.00 0.00 0.00 42 1020.0
20260903124017 24 173 3.2 9.7 0.00 0.00 0.00 41 1020.0
20260903123916 24 165 4.8 9.7 0.00 0.00 0.00 41 1020.0
20260903123817 24 230 3.2 11.3 0.00 0.00 0.00 41 1020.0
20260903123716 24 259 1.6 11.3 0.00 0.00 0.00 41 1019.9
20260903123616 24 265 1.6 11.3 0.00 0.00 0.00 41 1020.0
20260903123515 24 277 0.0 11.3 0.00 0.00 0.00 41 1020.0
20260903123416 24 270 1.6 11.3 0.00 0.00 0.00 41 1020.1
20260903121703 25 285 1.6 9.7 0.00 0.00 0.00 40 1019.8
20260903121604 25 275 4.8 9.7 0.00 0.00 0.00 40 1019.9
20260903121504 25 273 0.0 9.7 0.00 0.00 0.00 40 1019.8
20260903121404 25 276 4.8 9.7 0.00 0.00 0.00 40 1020.0
20260903121303 25 276 4.8 9.7 0.00 0.00 0.00 40 1020.1
20260903121203 25 296 4.8 9.7 0.00 0.00 0.00 40 1020.1
20260903121103 25 315 4.8 9.7 0.00 0.00 0.00 41 1019.9
20260903121004 25 312 4.8 9.7 0.00 0.00 0.00 41 1020.0
20260903120904 25 329 0.0 9.7 0.00 0.00 0.00 41 1020.1
20260903120804 25 314 1.6 9.7 0.00 0.00 0.00 41 1019.8
20260903120704 25 288 1.6 9.7 0.00 0.00 0.00 40 1020.0
20260903120603 25 297 6.4 9.7 0.00 0.00 0.00 40 1020.1
20260903120504 26 291 0.0 8.0 0.00 0.00 0.00 37 1020.2
20260903120404 26 279 0.0 8.0 0.00 0.00 0.00 37 1019.9
20260903120303 26 270 0.0 8.0 0.00 0.00 0.00 37 1019.9
20260903120203 26 261 0.0 8.0 0.00 0.00 0.00 37 1020.2
20260903120104 26 258 0.0 8.0 0.00 0.00 0.00 37 1020.2
20260903120006 26 251 0.0 8.0 0.00 0.00 0.00 37 1020.0
20260903115903 26 246 6.4 8.0 0.00 0.00 0.00 36 1020.0
20260903115803 26 236 4.8 8.0 0.00 0.00 0.00 36 1020.2
20260903115703 26 242 4.8 8.0 0.00 0.00 0.00 36 1020.3
20260903115603 26 241 4.8 6.4 0.00 0.00 0.00 36 1020.1
20260903115504 26 247 4.8 6.4 0.00 0.00 0.00 37 1020.2
20260903115404 26 249 1.6 6.4 0.00 0.00 0.00 38 1020.1
20260903115305 26 249 0.0 6.4 0.00 0.00 0.00 38 1020.3
20260903115203 26 252 3.2 6.4 0.00 0.00 0.00 38 1020.1
20260903115104 26 258 1.6 6.4 0.00 0.00 0.00 38 1020.1
20260903115003 26 271 3.2 6.4 0.00 0.00 0.00 38 1020.2
20260903114904 27 281 1.6 6.4 0.00 0.00 0.00 38 1020.2
20260903114803 27 281 3.2 6.4 0.00 0.00 0.00 38 1020.2
20260903114703 27 278 4.8 9.7 0.00 0.00 0.00 38 1020.1
20260903114604 27 284 1.6 9.7 0.00 0.00 0.00 38 1020.2
20260903114503 27 280 1.6 9.7 0.00 0.00 0.00 40 1020.3
20260903114403 27 270 1.6 9.7 0.00 0.00 0.00 40 1020.2
20260903114303 26 265 0.0 9.7 0.00 0.00 0.00 40 1020.1
20260903114205 26 263 1.6 9.7 0.00 0.00 0.00 39 1020.2
20260903114104 26 246 1.6 9.7 0.00 0.00 0.00 40 1020.2
20260903114004 26 239 1.6 9.7 0.00 0.00 0.00 40 1020.4
20260903113904 26 234 0.0 9.7 0.00 0.00 0.00 39 1020.3
20260903113804 26 231 1.6 9.7 0.00 0.00 0.00 38 1020.1
20260903113704 27 220 4.8 9.7 0.00 0.00 0.00 37 1020.2
20260903113604 27 186 4.8 9.7 0.00 0.00 0.00 38 1020.4
20260903113504 27 183 0.0 8.0 0.00 0.00 0.00 34 1020.1
20260903113404 27 186 0.0 8.0 0.00 0.00 0.00 35 1020.3
20260903113304 27 188 1.6 8.0 0.00 0.00 0.00 35 1020.1
20260903113203 27 196 1.6 8.0 0.00 0.00 0.00 35 1020.3
20260903113104 27 207 4.8 8.0 0.00 0.00 0.00 39 1020.2
20260903113006 27 221 1.6 6.4 0.00 0.00 0.00 34 1020.2
20260903112903 27 218 0.0 6.4 0.00 0.00 0.00 34 1020.2
20260903112803 27 218 1.6 6.4 0.00 0.00 0.00 33 1020.4
20260903112704 27 221 4.8 6.4 0.00 0.00 0.00 34 1020.4
20260903112604 27 227 3.2 4.8 0.00 0.00 0.00 34 1020.4
20260903112504 27 238 1.6 4.8 0.00 0.00 0.00 34 1020.4
20260903112405 27 243 0.0 4.8 0.00 0.00 0.00 34 1020.2
20260903112305 27 237 1.6 4.8 0.00 0.00 0.00 35 1020.3
20260903112204 27 192 1.6 4.8 0.00 0.00 0.00 35 1020.3
20260903112103 27 201 0.0 4.8 0.00 0.00 0.00 35 1020.2
20260903112004 27 255 0.0 4.8 0.00 0.00 0.00 35 1020.3
20260903111904 27 275 1.6 4.8 0.00 0.00 0.00 35 1020.4
20260903111804 27 275 3.2 4.8 0.00 0.00 0.00 35 1020.4
20260903111703 27 260 1.6 4.8 0.00 0.00 0.00 35 1020.3
20260903111604 27 261 1.6 4.8 0.00 0.00 0.00 35 1020.4
20260903111503 27 246 1.6 6.4 0.00 0.00 0.00 37 1020.4
20260903111403 27 250 0.0 6.4 0.00 0.00 0.00 41 1020.3
20260903111304 27 253 0.0 6.4 0.00 0.00 0.00 40 1020.4
20260903111204 27 254 0.0 6.4 0.00 0.00 0.00 40 1020.3
20260903111103 27 253 3.2 6.4 0.00 0.00 0.00 40 1020.3
20260903111003 27 248 3.2 6.4 0.00 0.00 0.00 35 1020.3
20260903110904 27 244 1.6 6.4 0.00 0.00 0.00 36 1020.5
20260903110804 27 243 3.2 6.4 0.00 0.00 0.00 36 1020.5
20260903110703 27 241 1.6 6.4 0.00 0.00 0.00 35 1020.7
20260903110603 27 235 1.6 6.4 0.00 0.00 0.00 35 1020.4
20260903110503 27 241 3.2 6.4 0.00 0.00 0.00 34 1020.5
20260903110403 27 233 1.6 6.4 0.00 0.00 0.00 34 1020.5
20260903110302 27 227 1.6 6.4 0.00 0.00 0.00 34 1020.6
20260903110204 27 225 4.8 6.4 0.00 0.00 0.00 35 1020.6
20260903110103 27 213 4.8 6.4 0.00 0.00 0.00 35 1020.4
20260903110006 27 210 1.6 4.8 0.00 0.00 0.00 36 1020.4
20260903105903 27 213 0.0 4.8 0.00 0.00 0.00 37 1020.7
20260903105804 27 218 0.0 4.8 0.00 0.00 0.00 36 1020.6
20260903105704 27 223 1.6 8.0 0.00 0.00 0.00 35 1020.8
20260903105604 27 232 1.6 8.0 0.00 0.00 0.00 35 1020.6
20260903105503 27 232 0.0 8.0 0.00 0.00 0.00 37 1020.6
20260903105404 27 240 0.0 8.0 0.00 0.00 0.00 36 1020.8
20260903105305 27 243 0.0 8.0 0.00 0.00 0.00 36 1020.8
20260903105203 27 244 1.6 8.0 0.00 0.00 0.00 36 1020.7
20260903105104 27 244 0.0 8.0 0.00 0.00 0.00 40 1020.7
20260903105003 27 242 1.6 8.0 0.00 0.00 0.00 40 1020.8
20260903104903 27 243 1.6 8.0 0.00 0.00 0.00 40 1020.6
20260903104806 27 240 3.2 8.0 0.00 0.00 0.00 35 1020.7
20260903104704 27 234 4.8 8.0 0.00 0.00 0.00 35 1020.7
20260903104604 27 215 1.6 4.8 0.00 0.00 0.00 35 1020.6
20260903104504 27 205 1.6 4.8 0.00 0.00 0.00 35 1020.8
20260903104404 27 198 3.2 4.8 0.00 0.00 0.00 35 1020.8
20260903104304 27 195 1.6 4.8 0.00 0.00 0.00 38 1020.8
20260903104204 27 188 0.0 4.8 0.00 0.00 0.00 39 1020.8
20260903104104 27 183 0.0 4.8 0.00 0.00 0.00 39 1020.8
20260903104005 27 185 0.0 4.8 0.00 0.00 0.00 40 1020.6
20260903103903 27 189 0.0 4.8 0.00 0.00 0.00 39 1020.7
20260903103804 27 190 1.6 4.8 0.00 0.00 0.00 39 1020.9
20260903103704 27 191 1.6 4.8 0.00 0.00 0.00 39 1020.8
20260903103604 27 198 1.6 4.8 0.00 0.00 0.00 39 1020.8
20260903103503 27 196 1.6 4.8 0.00 0.00 0.00 39 1020.9
20260903103404 27 203 1.6 4.8 0.00 0.00 0.00 39 1021.0
20260903103303 27 210 0.0 4.8 0.00 0.00 0.00 40 1021.0
20260903103203 27 218 0.0 4.8 0.00 0.00 0.00 40 1020.8
20260903103103 27 224 0.0 4.8 0.00 0.00 0.00 42 1020.9
20260903103006 27 230 1.6 4.8 0.00 0.00 0.00 42 1020.9
20260903102903 27 242 1.6 4.8 0.00 0.00 0.00 42 1021.0
20260903102804 27 251 0.0 4.8 0.00 0.00 0.00 43 1021.0
20260903102703 26 261 4.8 4.8 0.00 0.00 0.00 42 1020.8
20260903102603 26 262 0.0 4.8 0.00 0.00 0.00 42 1021.0
20260903102503 26 259 0.0 4.8 0.00 0.00 0.00 41 1021.1
20260903102403 26 248 1.6 4.8 0.00 0.00 0.00 41 1021.0
20260903102305 26 242 1.6 4.8 0.00 0.00 0.00 41 1021.0
20260903102204 26 248 3.2 4.8 0.00 0.00 0.00 41 1021.1
20260903102103 27 239 3.2 9.7 0.00 0.00 0.00 41 1021.2
20260903102003 27 247 3.2 9.7 0.00 0.00 0.00 41 1021.1
20260903101904 27 242 0.0 9.7 0.00 0.00 0.00 43 1021.3
20260903101803 27 246 1.6 9.7 0.00 0.00 0.00 43 1021.2
20260903101704 27 251 3.2 9.7 0.00 0.00 0.00 43 1021.1
20260903101602 26 252 0.0 9.7 0.00 0.00 0.00 43 1021.2
20260903101503 26 253 0.0 9.7 0.00 0.00 0.00 43 1021.3
20260903101404 26 258 1.6 9.7 0.00 0.00 0.00 43 1021.3
20260903101304 26 260 3.2 9.7 0.00 0.00 0.00 42 1021.4
20260903101202 26 254 3.2 9.7 0.00 0.00 0.00 42 1021.3
20260903101103 26 263 4.8 9.7 0.00 0.00 0.00 42 1021.2
20260903101003 27 256 0.0 4.8 0.00 0.00 0.00 43 1021.3
20260903100903 27 249 3.2 4.8 0.00 0.00 0.00 42 1021.3
20260903100804 27 267 1.6 6.4 0.00 0.00 0.00 43 1021.2
20260903100704 26 231 0.0 6.4 0.00 0.00 0.00 44 1021.1
20260903100604 26 210 0.0 6.4 0.00 0.00 0.00 42 1021.2
20260903100505 26 168 0.0 6.4 0.00 0.00 0.00 42 1021.2
20260903100405 26 134 0.0 6.4 0.00 0.00 0.00 42 1021.2
20260903100303 26 143 0.0 6.4 0.00 0.00 0.00 42 1021.3
20260903100203 26 144 0.0 6.4 0.00 0.00 0.00 42 1021.0
20260903100103 26 135 0.0 6.4 0.00 0.00 0.00 42 1021.2
20260903100007 26 139 0.0 6.4 0.00 0.00 0.00 42 1021.2
20260903095904 26 151 4.8 6.4 0.00 0.00 0.00 42 1021.2
20260903095803 26 149 0.0 3.2 0.00 0.00 0.00 42 1021.2
20260903095703 26 161 1.6 3.2 0.00 0.00 0.00 43 1021.0
20260903095603 26 174 0.0 3.2 0.00 0.00 0.00 43 1021.3
20260903095503 27 193 0.0 3.2 0.00 0.00 0.00 44 1021.3
20260903095404 27 211 0.0 4.8 0.00 0.00 0.00 44 1021.2
20260903095306 26 233 0.0 4.8 0.00 0.00 0.00 44 1021.3
20260903095204 26 229 0.0 4.8 0.00 0.00 0.00 44 1021.4
20260903095103 26 241 0.0 6.4 0.00 0.00 0.00 44 1021.4
20260903095003 26 256 0.0 6.4 0.00 0.00 0.00 44 1021.4
20260903094904 26 268 0.0 6.4 0.00 0.00 0.00 44 1021.4
20260903094804 26 269 0.0 6.4 0.00 0.00 0.00 44 1021.3
20260903094703 26 269 0.0 6.4 0.00 0.00 0.00 43 1021.2
20260903094604 26 270 1.6 6.4 0.00 0.00 0.00 43 1021.4
20260903094504 26 264 1.6 6.4 0.00 0.00 0.00 43 1021.3
20260903094403 26 250 3.2 6.4 0.00 0.00 0.00 44 1021.4
20260903094304 26 230 1.6 6.4 0.00 0.00 0.00 43 1021.3
20260903094204 26 243 0.0 6.4 0.00 0.00 0.00 43 1021.3
20260903094103 26 246 4.8 6.4 0.00 0.00 0.00 43 1021.4
20260903094004 26 233 4.8 6.4 0.00 0.00 0.00 43 1021.4
20260903093904 26 200 0.0 1.6 0.00 0.00 0.00 45 1021.4
20260903093804 26 195 0.0 1.6 0.00 0.00 0.00 44 1021.4
20260903093703 26 231 0.0 1.6 0.00 0.00 0.00 44 1021.4
20260903093603 26 291 0.0 1.6 0.00 0.00 0.00 43 1021.4
20260903093504 26 314 0.0 1.6 0.00 0.00 0.00 43 1021.3
20260903093403 26 311 0.0 1.6 0.00 0.00 0.00 43 1021.5
20260903093304 26 302 0.0 1.6 0.00 0.00 0.00 43 1021.5
20260903093203 27 288 0.0 1.6 0.00 0.00 0.00 43 1021.4
20260903093103 27 269 0.0 1.6 0.00 0.00 0.00 43 1021.5
20260903093005 27 249 0.0 1.6 0.00 0.00 0.00 44 1021.5
20260903092903 26 225 0.0 1.6 0.00 0.00 0.00 43 1021.5
20260903092804 26 227 0.0 3.2 0.00 0.00 0.00 44 1021.3
20260903092704 26 236 0.0 3.2 0.00 0.00 0.00 44 1021.4
20260903092604 26 225 0.0 3.2 0.00 0.00 0.00 44 1021.5
20260903092503 26 212 0.0 3.2 0.00 0.00 0.00 44 1021.4
20260903092404 26 207 1.6 3.2 0.00 0.00 0.00 44 1021.3
20260903092306 26 210 0.0 3.2 0.00 0.00 0.00 44 1021.6
20260903092204 26 212 0.0 3.2 0.00 0.00 0.00 44 1021.5
20260903092104 26 212 0.0 3.2 0.00 0.00 0.00 44 1021.4
20260903092004 26 211 0.0 3.2 0.00 0.00 0.00 44 1021.4
20260903091904 26 209 0.0 3.2 0.00 0.00 0.00 43 1021.4
20260903091804 26 195 1.6 3.2 0.00 0.00 0.00 43 1021.6
20260903091703 26 183 1.6 3.2 0.00 0.00 0.00 44 1021.5
20260903091603 27 171 0.0 4.8 0.00 0.00 0.00 44 1021.4
20260903091503 27 171 0.0 4.8 0.00 0.00 0.00 44 1021.8
20260903091403 27 176 0.0 4.8 0.00 0.00 0.00 45 1021.4
20260903091303 27 181 0.0 4.8 0.00 0.00 0.00 46 1021.5
20260903091203 26 184 0.0 4.8 0.00 0.00 0.00 46 1021.5
20260903091103 26 189 0.0 4.8 0.00 0.00 0.00 46 1021.6
20260903091003 26 194 0.0 4.8 0.00 0.00 0.00 46 1021.5
20260903090904 26 191 0.0 4.8 0.00 0.00 0.00 45 1021.7
20260903090803 26 203 0.0 4.8 0.00 0.00 0.00 44 1021.6
20260903090704 26 198 0.0 4.8 0.00 0.00 0.00 43 1021.7
20260903090604 26 200 3.2 4.8 0.00 0.00 0.00 43 1021.7
20260903090503 26 205 0.0 3.2 0.00 0.00 0.00 45 1021.7
20260903090403 26 200 0.0 3.2 0.00 0.00 0.00 45 1021.8
20260903090304 26 197 0.0 3.2 0.00 0.00 0.00 45 1021.6
20260903090204 26 202 0.0 3.2 0.00 0.00 0.00 45 1021.6
20260903090103 26 202 0.0 3.2 0.00 0.00 0.00 45 1021.6
20260903090005 26 204 0.0 3.2 0.00 0.00 0.00 45 1021.8
20260903085903 26 208 1.6 3.2 0.00 0.00 0.00 45 1021.9
20260903085803 26 190 0.0 3.2 0.00 0.00 0.00 46 1021.7
20260903085703 26 187 1.6 3.2 0.00 0.00 0.00 45 1021.9
20260903085604 26 198 0.0 3.2 0.00 0.00 0.00 46 1021.8
20260903085504 26 205 0.0 3.2 0.00 0.00 0.00 45 1021.8
20260903085403 26 205 1.6 3.2 0.00 0.00 0.00 44 1021.8
20260903085306 26 203 1.6 3.2 0.00 0.00 0.00 45 1021.8
20260903085203 26 192 1.6 3.2 0.00 0.00 0.00 45 1021.6
20260903085103 26 199 0.0 3.2 0.00 0.00 0.00 47 1021.8
20260903085003 26 218 0.0 4.8 0.00 0.00 0.00 47 1021.7
20260903084903 26 223 0.0 4.8 0.00 0.00 0.00 47 1021.7
20260903084804 25 235 1.6 4.8 0.00 0.00 0.00 48 1021.7
20260903084703 25 250 0.0 4.8 0.00 0.00 0.00 48 1021.7
20260903084603 25 249 1.6 4.8 0.00 0.00 0.00 49 1021.6
20260903084503 25 230 0.0 4.8 0.00 0.00 0.00 50 1021.8
20260903084403 25 228 0.0 4.8 0.00 0.00 0.00 50 1021.7
20260903084304 25 237 0.0 4.8 0.00 0.00 0.00 50 1021.9
20260903084205 25 238 0.0 4.8 0.00 0.00 0.00 50 1021.6
20260903084103 25 207 1.6 4.8 0.00 0.00 0.00 50 1021.8
20260903084004 25 175 1.6 4.8 0.00 0.00 0.00 51 1021.5
20260903083904 24 173 0.0 3.2 0.00 0.00 0.00 51 1021.9
20260903083803 24 178 0.0 3.2 0.00 0.00 0.00 52 1021.7
20260903083703 24 177 0.0 3.2 0.00 0.00 0.00 52 1021.6
20260903083604 23 182 0.0 3.2 0.00 0.00 0.00 52 1021.6
20260903083503 23 184 0.0 3.2 0.00 0.00 0.00 52 1021.6
20260903083404 23 185 0.0 3.2 0.00 0.00 0.00 52 1021.7
20260903083304 23 184 0.0 4.8 0.00 0.00 0.00 52 1021.7
20260903083203 23 190 0.0 4.8 0.00 0.00 0.00 52 1021.9
20260903083103 23 186 1.6 4.8 0.00 0.00 0.00 52 1021.6
20260903083005 23 196 1.6 4.8 0.00 0.00 0.00 52 1021.8
20260903082904 22 188 0.0 4.8 0.00 0.00 0.00 52 1021.8
20260903082803 22 175 0.0 4.8 0.00 0.00 0.00 52 1021.8
20260903082703 22 172 0.0 4.8 0.00 0.00 0.00 52 1021.6
20260903082603 22 169 0.0 4.8 0.00 0.00 0.00 52 1021.7
20260903082503 22 161 0.0 4.8 0.00 0.00 0.00 52 1021.5
20260903082403 22 154 0.0 4.8 0.00 0.00 0.00 52 1021.6
20260903082306 22 143 3.2 4.8 0.00 0.00 0.00 51 1021.7
20260903082204 22 131 3.2 4.8 0.00 0.00 0.00 51 1021.6
20260903082104 23 133 3.2 4.8 0.00 0.00 0.00 51 1021.8
20260903082005 23 135 0.0 4.8 0.00 0.00 0.00 51 1021.8
20260903081904 23 137 1.6 4.8 0.00 0.00 0.00 51 1021.7
20260903081804 23 138 1.6 4.8 0.00 0.00 0.00 52 1021.7
20260903081704 23 135 0.0 4.8 0.00 0.00 0.00 52 1021.6
20260903081603 23 132 0.0 4.8 0.00 0.00 0.00 52 1021.5
20260903081503 23 135 1.6 4.8 0.00 0.00 0.00 50 1021.7
20260903081404 23 135 0.0 4.8 0.00 0.00 0.00 50 1021.6
20260903081303 23 135 1.6 4.8 0.00 0.00 0.00 50 1021.7
20260903081203 23 141 1.6 3.2 0.00 0.00 0.00 50 1021.8
20260903081103 24 143 0.0 3.2 0.00 0.00 0.00 50 1021.8
20260903081003 24 141 0.0 3.2 0.00 0.00 0.00 50 1021.8
20260903080903 24 141 0.0 3.2 0.00 0.00 0.00 50 1021.7
20260903080804 24 143 0.0 3.2 0.00 0.00 0.00 50 1021.7
20260903080703 24 145 1.6 3.2 0.00 0.00 0.00 50 1021.7
20260903080604 24 146 1.6 3.2 0.00 0.00 0.00 50 1021.6
20260903080504 25 139 0.0 1.6 0.00 0.00 0.00 50 1021.5
20260903080404 25 139 0.0 1.6 0.00 0.00 0.00 50 1021.6
20260903080304 25 139 0.0 1.6 0.00 0.00 0.00 50 1021.7
20260903080204 25 139 0.0 1.6 0.00 0.00 0.00 50 1021.7
20260903080006 25 144 0.0 1.6 0.00 0.00 0.00 50 1021.5
20260903075903 25 146 0.0 1.6 0.00 0.00 0.00 50 1021.7
20260903075805 25 144 0.0 1.6 0.00 0.00 0.00 50 1021.7
20260903075704 25 150 0.0 1.6 0.00 0.00 0.00 50 1021.5
20260903075603 25 166 0.0 1.6 0.00 0.00 0.00 50 1021.6
20260903075503 25 186 0.0 1.6 0.00 0.00 0.00 51 1021.7
20260903075404 25 197 0.0 1.6 0.00 0.00 0.00 51 1021.7
20260903075306 25 199 0.0 1.6 0.00 0.00 0.00 52 1021.8
20260903075204 25 202 0.0 1.6 0.00 0.00 0.00 52 1021.8
20260903075103 24 201 0.0 1.6 0.00 0.00 0.00 51 1021.6
20260903075004 24 201 0.0 1.6 0.00 0.00 0.00 51 1021.5
20260903074904 24 197 0.0 1.6 0.00 0.00 0.00 51 1021.7
20260903074804 24 193 0.0 1.6 0.00 0.00 0.00 51 1021.5
20260903074703 24 183 0.0 3.2 0.00 0.00 0.00 51 1021.7
20260903074603 24 163 1.6 3.2 0.00 0.00 0.00 52 1021.5
20260903074503 24 149 0.0 3.2 0.00 0.00 0.00 52 1021.7
20260903074403 24 147 0.0 3.2 0.00 0.00 0.00 52 1021.6
20260903074303 23 149 0.0 3.2 0.00 0.00 0.00 52 1021.7
20260903074204 23 158 0.0 3.2 0.00 0.00 0.00 52 1021.7
20260903074103 23 152 0.0 4.8 0.00 0.00 0.00 53 1021.8
20260903074003 23 147 0.0 4.8 0.00 0.00 0.00 53 1021.5
20260903073903 23 147 0.0 4.8 0.00 0.00 0.00 53 1021.6
20260903073803 23 146 0.0 4.8 0.00 0.00 0.00 53 1021.5
20260903073704 23 147 1.6 4.8 0.00 0.00 0.00 53 1021.7
20260903073604 23 147 0.0 4.8 0.00 0.00 0.00 53 1021.4
20260903073503 23 148 0.0 4.8 0.00 0.00 0.00 53 1021.5
20260903073404 23 144 0.0 4.8 0.00 0.00 0.00 53 1021.5
20260903073304 23 142 0.0 4.8 0.00 0.00 0.00 52 1021.3
20260903073203 23 133 1.6 4.8 0.00 0.00 0.00 52 1021.5
20260903073104 23 134 1.6 4.8 0.00 0.00 0.00 53 1021.4
20260903073005 23 139 0.0 4.8 0.00 0.00 0.00 53 1021.5
20260903072903 23 139 0.0 4.8 0.00 0.00 0.00 54 1021.4
20260903072804 23 141 0.0 4.8 0.00 0.00 0.00 54 1021.5
20260903072704 23 143 1.6 4.8 0.00 0.00 0.00 55 1021.5
20260903072603 23 144 0.0 4.8 0.00 0.00 0.00 55 1021.6
20260903072504 23 144 0.0 4.8 0.00 0.00 0.00 55 1021.5
20260903072404 23 145 0.0 4.8 0.00 0.00 0.00 55 1021.5
20260903072306 23 147 1.6 4.8 0.00 0.00 0.00 58 1021.5
20260903072203 23 155 3.2 4.8 0.00 0.00 0.00 59 1021.6
20260903072103 23 166 0.0 3.2 0.00 0.00 0.00 60 1021.4
20260903072003 22 160 1.6 4.8 0.00 0.00 0.00 60 1021.6
20260903071904 22 173 0.0 4.8 0.00 0.00 0.00 61 1021.6
20260903071803 22 173 0.0 4.8 0.00 0.00 0.00 65 1021.6
20260903071703 22 169 0.0 4.8 0.00 0.00 0.00 65 1021.6
20260903071604 22 169 0.0 4.8 0.00 0.00 0.00 66 1021.7
20260903071503 21 170 0.0 4.8 0.00 0.00 0.00 67 1021.6
20260903071403 21 170 0.0 4.8 0.00 0.00 0.00 66 1021.6
20260903071304 21 170 0.0 4.8 0.00 0.00 0.00 66 1021.7
20260903071204 21 170 0.0 4.8 0.00 0.00 0.00 66 1021.7
20260903071105 20 169 3.2 4.8 0.00 0.00 0.00 67 1021.6
20260903071004 20 172 0.0 4.8 0.00 0.00 0.00 69 1021.6
20260903070905 20 155 0.0 4.8 0.00 0.00 0.00 69 1021.6
20260903070805 20 153 0.0 4.8 0.00 0.00 0.00 70 1021.6
20260903070704 19 160 0.0 4.8 0.00 0.00 0.00 70 1021.6
20260903070604 19 166 3.2 4.8 0.00 0.00 0.00 70 1021.7
20260903070503 18 154 0.0 3.2 0.00 0.00 0.00 69 1021.7
20260903070405 18 147 0.0 3.2 0.00 0.00 0.00 69 1021.7
20260903070303 18 149 0.0 3.2 0.00 0.00 0.00 69 1021.6
20260903070203 18 151 0.0 3.2 0.00 0.00 0.00 69 1021.7
20260903070103 18 151 0.0 3.2 0.00 0.00 0.00 69 1021.7
20260903070006 18 149 0.0 3.2 0.00 0.00 0.00 69 1021.8
20260903065903 18 148 0.0 3.2 0.00 0.00 0.00 69 1021.6
20260903065804 18 148 0.0 3.2 0.00 0.00 0.00 70 1021.8
20260903065703 18 148 1.6 3.2 0.00 0.00 0.00 70 1021.6
20260903065603 18 142 0.0 1.6 0.00 0.00 0.00 70 1021.7
20260903065503 18 142 0.0 1.6 0.00 0.00 0.00 70 1021.6
20260903065404 18 150 0.0 1.6 0.00 0.00 0.00 70 1021.8
20260903065306 18 148 0.0 1.6 0.00 0.00 0.00 70 1021.8
20260903065204 18 146 0.0 1.6 0.00 0.00 0.00 70 1021.6
20260903065104 18 152 0.0 1.6 0.00 0.00 0.00 70 1021.7
20260903065003 18 157 0.0 1.6 0.00 0.00 0.00 70 1022.0
20260903064903 18 163 0.0 1.6 0.00 0.00 0.00 70 1021.7
20260903064804 18 166 0.0 1.6 0.00 0.00 0.00 70 1021.8
20260903064703 18 160 0.0 1.6 0.00 0.00 0.00 71 1022.0
20260903064604 18 152 0.0 1.6 0.00 0.00 0.00 71 1021.7
20260903064504 18 152 0.0 1.6 0.00 0.00 0.00 71 1021.7
20260903064403 18 153 0.0 1.6 0.00 0.00 0.00 71 1021.8
20260903064303 18 155 0.0 1.6 0.00 0.00 0.00 71 1021.7
20260903064204 18 154 0.0 1.6 0.00 0.00 0.00 71 1021.7
20260903064105 17 142 0.0 1.6 0.00 0.00 0.00 71 1021.8
20260903064003 17 139 0.0 1.6 0.00 0.00 0.00 71 1021.7
20260903063904 17 147 0.0 1.6 0.00 0.00 0.00 71 1021.8
20260903063803 17 148 0.0 1.6 0.00 0.00 0.00 71 1021.9
20260903063703 17 148 0.0 1.6 0.00 0.00 0.00 71 1021.8
20260903063604 17 161 0.0 1.6 0.00 0.00 0.00 72 1021.9
20260903063503 17 165 0.0 0.0 0.00 0.00 0.00 72 1021.8
20260903063403 17 165 0.0 0.0 0.00 0.00 0.00 72 1022.0
20260903063303 17 165 0.0 0.0 0.00 0.00 0.00 72 1021.9
20260903063203 17 165 0.0 0.0 0.00 0.00 0.00 72 1021.8
20260903063103 17 165 0.0 0.0 0.00 0.00 0.00 72 1021.7
20260903063005 17 162 0.0 0.0 0.00 0.00 0.00 72 1021.8
20260903062904 17 147 0.0 0.0 0.00 0.00 0.00 72 1021.9
20260903062804 17 135 0.0 0.0 0.00 0.00 0.00 72 1021.5
20260903062703 17 0 0.0 0.0 0.00 0.00 0.00 72 1021.7
20260903062604 17 0 0.0 0.0 0.00 0.00 0.00 75 1021.7
20260903062504 17 0 0.0 0.0 0.00 0.00 0.00 75 1021.7
20260903062404 17 0 0.0 0.0 0.00 0.00 0.00 74 1021.7
20260903062306 17 0 0.0 0.0 0.00 0.00 0.00 74 1021.7
20260903062203 17 0 0.0 0.0 0.00 0.00 0.00 74 1021.8
20260903062103 17 0 0.0 0.0 0.00 0.00 0.00 75 1021.7
20260903062004 17 0 0.0 0.0 0.00 0.00 0.00 72 1021.7
20260903061904 17 0 0.0 0.0 0.00 0.00 0.00 72 1021.7
20260903061804 17 0 0.0 0.0 0.00 0.00 0.00 72 1021.7
20260903061704 17 0 0.0 0.0 0.00 0.00 0.00 72 1021.8
20260903061603 17 181 0.0 0.0 0.00 0.00 0.00 72 1021.8
20260903061504 17 181 0.0 0.0 0.00 0.00 0.00 72 1021.8
20260903061404 17 181 0.0 0.0 0.00 0.00 0.00 73 1021.9
20260903061305 17 181 0.0 0.0 0.00 0.00 0.00 73 1021.7
20260903061204 17 181 0.0 0.0 0.00 0.00 0.00 73 1021.8
20260903061104 17 181 0.0 0.0 0.00 0.00 0.00 73 1021.7
20260903061003 17 181 0.0 0.0 0.00 0.00 0.00 73 1021.8
20260903060903 17 181 0.0 0.0 0.00 0.00 0.00 73 1021.7
20260903060803 17 181 0.0 0.0 0.00 0.00 0.00 73 1021.8
20260903060703 17 181 0.0 0.0 0.00 0.00 0.00 73 1021.8
20260903060603 17 175 0.0 0.0 0.00 0.00 0.00 73 1021.7
20260903060504 17 175 0.0 0.0 0.00 0.00 0.00 78 1021.8
20260903060404 17 172 0.0 0.0 0.00 0.00 0.00 78 1021.8
20260903060305 17 165 0.0 0.0 0.00 0.00 0.00 78 1021.7
20260903060203 17 161 0.0 0.0 0.00 0.00 0.00 78 1021.7
20260903060105 17 158 0.0 0.0 0.00 0.00 0.00 78 1021.8
20260903060006 17 152 0.0 0.0 0.00 0.00 0.00 78 1021.8
20260903055904 17 156 0.0 1.6 0.00 0.00 0.00 79 1021.8
20260903055803 17 162 0.0 1.6 0.00 0.00 0.00 79 1021.7
20260903055704 17 162 0.0 1.6 0.00 0.00 0.00 79 1021.7
20260903055604 17 165 0.0 1.6 0.00 0.00 0.00 80 1021.7
20260903055504 17 166 0.0 1.6 0.00 0.00 0.00 80 1021.7
20260903055403 17 168 0.0 1.6 0.00 0.00 0.00 80 1021.6
20260903055306 17 168 0.0 1.6 0.00 0.00 0.00 80 1021.8
20260903055203 17 165 0.0 1.6 0.00 0.00 0.00 80 1021.8
20260903055103 16 163 0.0 1.6 0.00 0.00 0.00 81 1021.8
20260903055004 16 163 0.0 1.6 0.00 0.00 0.00 81 1022.0
20260903054904 16 159 0.0 1.6 0.00 0.00 0.00 81 1021.9
20260903054804 16 141 0.0 1.6 0.00 0.00 0.00 81 1021.8
20260903054704 16 135 0.0 0.0 0.00 0.00 0.00 81 1021.8
20260903054604 16 135 0.0 0.0 0.00 0.00 0.00 81 1021.8
20260903054504 16 135 0.0 0.0 0.00 0.00 0.00 81 1021.9
20260903054404 16 135 0.0 0.0 0.00 0.00 0.00 81 1021.9
20260903054304 16 135 0.0 0.0 0.00 0.00 0.00 82 1021.7
20260903054203 16 135 0.0 0.0 0.00 0.00 0.00 82 1021.8
20260903054103 16 135 0.0 0.0 0.00 0.00 0.00 82 1022.0
20260903054003 16 135 0.0 0.0 0.00 0.00 0.00 82 1021.9
20260903053905 16 135 0.0 0.0 0.00 0.00 0.00 83 1021.7
20260903053804 16 135 0.0 0.0 0.00 0.00 0.00 83 1021.8
20260903053703 16 137 0.0 0.0 0.00 0.00 0.00 83 1021.9
20260903053603 16 144 0.0 0.0 0.00 0.00 0.00 83 1021.8
20260903053505 16 144 0.0 0.0 0.00 0.00 0.00 83 1021.7
20260903053403 15 145 0.0 0.0 0.00 0.00 0.00 83 1021.7
20260903053304 15 151 0.0 0.0 0.00 0.00 0.00 83 1021.9
20260903053204 15 171 0.0 0.0 0.00 0.00 0.00 83 1021.7
20260903053104 15 181 0.0 0.0 0.00 0.00 0.00 84 1021.7
20260903053007 15 181 0.0 0.0 0.00 0.00 0.00 84 1021.8
20260903052904 15 196 0.0 0.0 0.00 0.00 0.00 84 1021.7
20260903052803 15 196 0.0 0.0 0.00 0.00 0.00 84 1021.7
20260903052705 15 196 0.0 0.0 0.00 0.00 0.00 84 1021.7
20260903052603 15 195 0.0 0.0 0.00 0.00 0.00 84 1021.8
20260903052503 15 191 0.0 0.0 0.00 0.00 0.00 84 1021.8
20260903052403 15 191 0.0 0.0 0.00 0.00 0.00 84 1021.7
20260903052306 15 191 0.0 0.0 0.00 0.00 0.00 84 1021.6
20260903052204 15 191 0.0 0.0 0.00 0.00 0.00 84 1021.7
20260903052104 15 191 0.0 0.0 0.00 0.00 0.00 84 1021.6
20260903052004 15 194 0.0 0.0 0.00 0.00 0.00 84 1021.8
20260903051905 15 181 0.0 0.0 0.00 0.00 0.00 84 1021.7
20260903051803 15 181 0.0 0.0 0.00 0.00 0.00 84 1021.6
20260903051704 15 181 0.0 0.0 0.00 0.00 0.00 84 1021.7
20260903051604 15 157 0.0 0.0 0.00 0.00 0.00 84 1021.7
20260903051503 15 135 0.0 0.0 0.00 0.00 0.00 84 1021.7
20260903051403 15 135 0.0 0.0 0.00 0.00 0.00 84 1021.8
20260903051303 15 135 0.0 0.0 0.00 0.00 0.00 84 1021.8
20260903051203 15 135 0.0 0.0 0.00 0.00 0.00 84 1021.8
20260903051104 14 135 0.0 0.0 0.00 0.00 0.00 84 1021.6
20260903051003 14 135 0.0 0.0 0.00 0.00 0.00 84 1021.8
20260903050903 14 135 0.0 0.0 0.00 0.00 0.00 84 1021.8
20260903050803 14 135 0.0 0.0 0.00 0.00 0.00 84 1021.7
20260903050704 14 135 0.0 0.0 0.00 0.00 0.00 84 1021.7
20260903050603 14 135 0.0 0.0 0.00 0.00 0.00 84 1021.6
20260903050504 14 0 0.0 0.0 0.00 0.00 0.00 84 1021.8
20260903050403 14 0 0.0 0.0 0.00 0.00 0.00 84 1021.6
20260903050304 14 0 0.0 0.0 0.00 0.00 0.00 84 1021.8
20260903050205 14 0 0.0 0.0 0.00 0.00 0.00 84 1021.6
20260903050006 14 0 0.0 0.0 0.00 0.00 0.00 84 1021.8
20260903045904 13 0 0.0 0.0 0.00 0.00 0.00 84 1021.6
20260903045803 13 0 0.0 0.0 0.00 0.00 0.00 84 1021.6
20260903045704 13 117 0.0 3.2 0.00 0.00 0.00 84 1021.6
20260903045603 13 124 0.0 3.2 0.00 0.00 0.00 84 1021.7
20260903045504 13 165 0.0 3.2 0.00 0.00 0.00 84 1021.6
20260903045403 13 168 0.0 3.2 0.00 0.00 0.00 84 1021.5
20260903045306 13 174 0.0 3.2 0.00 0.00 0.00 84 1021.6
20260903045204 13 174 0.0 3.2 0.00 0.00 0.00 84 1021.8
20260903045103 13 175 0.0 3.2 0.00 0.00 0.00 83 1021.7
20260903045003 13 170 0.0 3.2 0.00 0.00 0.00 83 1021.6
20260903044904 13 166 0.0 3.2 0.00 0.00 0.00 83 1021.6
20260903044804 13 163 0.0 3.2 0.00 0.00 0.00 83 1021.6
20260903044705 13 162 1.6 3.2 0.00 0.00 0.00 83 1021.6
20260903044605 13 174 0.0 3.2 0.00 0.00 0.00 83 1021.7
20260903044504 13 169 0.0 0.0 0.00 0.00 0.00 83 1021.6
20260903044404 13 166 0.0 0.0 0.00 0.00 0.00 83 1021.5
20260903044303 13 161 0.0 0.0 0.00 0.00 0.00 83 1021.4
20260903044204 13 158 0.0 0.0 0.00 0.00 0.00 83 1021.5
20260903044104 13 155 0.0 0.0 0.00 0.00 0.00 83 1021.7
20260903044005 13 157 0.0 0.0 0.00 0.00 0.00 83 1021.4
20260903043903 13 167 0.0 0.0 0.00 0.00 0.00 83 1021.7
20260903043804 13 187 0.0 0.0 0.00 0.00 0.00 83 1021.5
20260903043703 13 214 0.0 0.0 0.00 0.00 0.00 83 1021.5
20260903043603 13 225 0.0 0.0 0.00 0.00 0.00 83 1021.4
20260903043504 13 90 0.0 0.0 0.00 0.00 0.00 82 1021.6
20260903043403 13 181 0.0 0.0 0.00 0.00 0.00 82 1021.4
20260903043304 13 181 0.0 0.0 0.00 0.00 0.00 82 1021.5
20260903043204 13 181 0.0 0.0 0.00 0.00 0.00 82 1021.4
20260903043103 13 181 0.0 0.0 0.00 0.00 0.00 82 1021.4
20260903043005 13 181 0.0 0.0 0.00 0.00 0.00 82 1021.5
20260903042905 13 181 0.0 0.0 0.00 0.00 0.00 82 1021.4
20260903042804 13 181 0.0 0.0 0.00 0.00 0.00 82 1021.4
20260903042703 13 181 0.0 0.0 0.00 0.00 0.00 82 1021.3
20260903042603 13 181 0.0 0.0 0.00 0.00 0.00 82 1021.4
20260903042504 13 181 0.0 0.0 0.00 0.00 0.00 82 1021.4
20260903042403 13 181 0.0 0.0 0.00 0.00 0.00 82 1021.5
20260903042306 13 181 0.0 0.0 0.00 0.00 0.00 82 1021.5
20260903042204 13 181 0.0 0.0 0.00 0.00 0.00 82 1021.3
20260903042103 13 181 0.0 0.0 0.00 0.00 0.00 82 1021.5
20260903042004 13 181 0.0 0.0 0.00 0.00 0.00 83 1021.2
20260903041903 13 181 0.0 0.0 0.00 0.00 0.00 83 1021.5
20260903041804 13 181 0.0 0.0 0.00 0.00 0.00 83 1021.5
20260903041704 13 181 0.0 0.0 0.00 0.00 0.00 83 1021.6
20260903041603 13 181 0.0 0.0 0.00 0.00 0.00 83 1021.3
20260903041504 13 0 0.0 0.0 0.00 0.00 0.00 83 1021.5
20260903041403 13 0 0.0 0.0 0.00 0.00 0.00 83 1021.7
20260903041303 13 0 0.0 0.0 0.00 0.00 0.00 83 1021.5
20260903041204 13 0 0.0 0.0 0.00 0.00 0.00 83 1021.4
20260903041104 13 0 0.0 0.0 0.00 0.00 0.00 83 1021.5
20260903041003 13 0 0.0 0.0 0.00 0.00 0.00 83 1021.4
20260903040904 13 0 0.0 0.0 0.00 0.00 0.00 83 1021.5
20260903040804 13 0 0.0 0.0 0.00 0.00 0.00 83 1021.3
20260903040704 13 0 0.0 0.0 0.00 0.00 0.00 83 1021.3
20260903040604 13 0 0.0 0.0 0.00 0.00 0.00 83 1021.3
20260903040503 13 158 0.0 0.0 0.00 0.00 0.00 83 1021.2
20260903040404 13 158 0.0 0.0 0.00 0.00 0.00 83 1021.1
20260903040303 13 158 0.0 0.0 0.00 0.00 0.00 83 1021.1
20260903040204 13 158 0.0 0.0 0.00 0.00 0.00 83 1021.1
20260903040103 13 158 0.0 0.0 0.00 0.00 0.00 83 1021.2
20260903040008 13 158 0.0 0.0 0.00 0.00 0.00 83 1021.2
20260903035903 13 158 0.0 0.0 0.00 0.00 0.00 83 1021.1
20260903035804 13 145 0.0 0.0 0.00 0.00 0.00 83 1021.2
20260903035703 13 141 0.0 0.0 0.00 0.00 0.00 83 1021.2
20260903035603 13 141 0.0 0.0 0.00 0.00 0.00 83 1021.0
20260903035504 13 141 0.0 0.0 0.00 0.00 0.00 83 1021.0
20260903035405 13 135 0.0 0.0 0.00 0.00 0.00 83 1021.3
20260903035306 13 135 0.0 0.0 0.00 0.00 0.00 83 1021.2
20260903035204 13 135 0.0 0.0 0.00 0.00 0.00 83 1021.2
20260903035103 13 135 0.0 0.0 0.00 0.00 0.00 83 1021.2
20260903035003 13 135 0.0 0.0 0.00 0.00 0.00 83 1021.1
20260903034903 13 135 0.0 0.0 0.00 0.00 0.00 83 1021.1
20260903034804 13 135 0.0 0.0 0.00 0.00 0.00 83 1021.0
20260903034703 13 0 0.0 0.0 0.00 0.00 0.00 83 1021.1
20260903034604 13 0 0.0 0.0 0.00 0.00 0.00 83 1021.1
20260903034503 13 0 0.0 0.0 0.00 0.00 0.00 84 1021.2
20260903034404 13 0 0.0 0.0 0.00 0.00 0.00 84 1021.0
20260903034303 13 0 0.0 0.0 0.00 0.00 0.00 84 1020.9
20260903034204 13 0 0.0 0.0 0.00 0.00 0.00 84 1021.1
20260903034103 13 0 0.0 0.0 0.00 0.00 0.00 84 1021.1
20260903034004 13 135 0.0 0.0 0.00 0.00 0.00 84 1021.1
20260903033903 13 135 0.0 0.0 0.00 0.00 0.00 84 1021.2
20260903033804 13 154 0.0 0.0 0.00 0.00 0.00 84 1021.1
20260903033704 13 164 0.0 0.0 0.00 0.00 0.00 84 1021.1
20260903033603 13 164 0.0 0.0 0.00 0.00 0.00 84 1020.9
20260903033504 13 164 0.0 0.0 0.00 0.00 0.00 84 1021.2
20260903033403 13 164 0.0 0.0 0.00 0.00 0.00 84 1020.9
20260903033304 13 171 0.0 0.0 0.00 0.00 0.00 84 1021.3
20260903033205 13 182 0.0 0.0 0.00 0.00 0.00 84 1021.1
20260903033103 13 190 0.0 0.0 0.00 0.00 0.00 84 1021.2
20260903033003 13 196 0.0 0.0 0.00 0.00 0.00 84 1021.1